DW4078 Weather Reports


Display with metric or nautical units.
time (UTC)temp
F
wind
direction
speed
MPH
gust
MPH
rain 1hr
in
rain 24hr
in
rain mn
in
humidity
%
barometer
mb
20260905220203 76 59 1.0 4.0 0.00 0.00 0.00 68 1014.4
20260905220103 76 60 1.0 4.0 0.00 0.00 0.00 67 1014.4
20260905220003 76 61 1.0 4.0 0.00 0.00 0.00 68 1014.5
20260905215903 76 61 2.0 4.0 0.00 0.00 0.00 68 1014.3
20260905215824 76 64 2.0 7.0 0.00 0.00 0.00 67 1014.3
20260905215704 76 56 2.0 7.0 0.00 0.00 0.00 69 1014.4
20260905215603 76 53 2.0 7.0 0.00 0.00 0.00 69 1014.4
20260905215524 76 55 2.0 7.0 0.00 0.00 0.00 69 1014.4
20260905215402 75 61 2.0 7.0 0.00 0.00 0.00 68 1014.5
20260905215305 75 60 2.0 7.0 0.00 0.00 0.00 69 1014.2
20260905215202 75 63 2.0 7.0 0.00 0.00 0.00 70 1014.2
20260905215103 75 57 2.0 7.0 0.00 0.00 0.00 69 1014.2
20260905215004 75 56 2.0 7.0 0.00 0.00 0.00 69 1014.4
20260905214903 75 56 2.0 7.0 0.00 0.00 0.00 68 1014.4
20260905214803 76 60 2.0 6.0 0.00 0.00 0.00 69 1014.4
20260905214704 76 66 2.0 6.0 0.00 0.00 0.00 68 1014.2
20260905214603 76 72 2.0 6.0 0.00 0.00 0.00 68 1014.3
20260905214502 77 76 2.0 6.0 0.00 0.00 0.00 70 1014.3
20260905214403 77 79 1.0 6.0 0.00 0.00 0.00 67 1014.3
20260905214303 78 88 1.0 6.0 0.00 0.00 0.00 66 1014.2
20260905214202 78 90 1.0 6.0 0.00 0.00 0.00 65 1014.2
20260905214102 78 91 1.0 6.0 0.00 0.00 0.00 64 1014.1
20260905214003 79 90 1.0 6.0 0.00 0.00 0.00 64 1014.2
20260905213924 79 91 1.0 8.0 0.00 0.00 0.00 63 1014.1
20260905213825 78 83 1.0 8.0 0.00 0.00 0.00 65 1014.1
20260905213703 78 82 1.0 8.0 0.00 0.00 0.00 64 1014.1
20260905213604 77 89 2.0 8.0 0.00 0.00 0.00 66 1014.3
20260905213504 77 88 2.0 8.0 0.00 0.00 0.00 68 1014.0
20260905213402 76 79 2.0 8.0 0.00 0.00 0.00 68 1014.2
20260905213303 76 74 2.0 8.0 0.00 0.00 0.00 67 1014.2
20260905213204 76 73 2.0 8.0 0.00 0.00 0.00 69 1014.0
20260905213103 76 77 2.0 8.0 0.00 0.00 0.00 71 1014.3
20260905213003 76 67 2.0 8.0 0.00 0.00 0.00 70 1014.2
20260905212904 76 52 2.0 6.0 0.00 0.00 0.00 70 1014.2
20260905212802 76 46 1.0 6.0 0.00 0.00 0.00 71 1014.1
20260905212703 76 36 2.0 6.0 0.00 0.00 0.00 72 1014.3
20260905212602 76 29 2.0 6.0 0.00 0.00 0.00 72 1014.1
20260905212502 76 33 2.0 6.0 0.00 0.00 0.00 72 1014.0
20260905212403 76 36 2.0 6.0 0.00 0.00 0.00 72 1014.2
20260905212306 76 36 2.0 6.0 0.00 0.00 0.00 72 1014.2
20260905212225 76 38 2.0 6.0 0.00 0.00 0.00 72 1014.2
20260905212124 76 38 2.0 6.0 0.00 0.00 0.00 72 1014.1
20260905212003 76 41 2.0 6.0 0.00 0.00 0.00 72 1014.2
20260905211902 76 51 1.0 6.0 0.00 0.00 0.00 70 1014.3
20260905211803 76 59 1.0 6.0 0.00 0.00 0.00 72 1014.2
20260905211703 76 66 1.0 3.0 0.00 0.00 0.00 72 1014.2
20260905211602 77 72 1.0 4.0 0.00 0.00 0.00 71 1014.2
20260905211524 77 80 1.0 4.0 0.00 0.00 0.00 71 1014.0
20260905211402 77 82 1.0 6.0 0.00 0.00 0.00 72 1013.9
20260905211303 78 75 2.0 9.0 0.00 0.00 0.00 72 1014.0
20260905211204 77 71 2.0 9.0 0.00 0.00 0.00 71 1014.0
20260905211103 77 80 2.0 9.0 0.00 0.00 0.00 73 1014.1
20260905211003 77 83 2.0 9.0 0.00 0.00 0.00 74 1014.1
20260905210923 77 80 2.0 9.0 0.00 0.00 0.00 74 1014.0
20260905210803 77 72 2.0 9.0 0.00 0.00 0.00 72 1014.2
20260905210724 77 60 2.0 9.0 0.00 0.00 0.00 72 1014.2
20260905210602 78 60 2.0 9.0 0.00 0.00 0.00 72 1013.9
20260905210523 78 55 2.0 9.0 0.00 0.00 0.00 72 1013.9
20260905210403 78 55 2.0 9.0 0.00 0.00 0.00 73 1014.0
20260905210303 78 64 2.0 7.0 0.00 0.00 0.00 71 1014.0
20260905210224 78 68 2.0 7.0 0.00 0.00 0.00 71 1014.0
20260905210124 78 65 2.0 7.0 0.00 0.00 0.00 71 1014.2
20260905210003 79 59 2.0 7.0 0.00 0.00 0.00 70 1014.0
20260905205903 79 69 2.0 7.0 0.00 0.00 0.00 69 1014.0
20260905205804 79 75 2.0 7.0 0.00 0.00 0.00 69 1014.0
20260905205704 79 81 2.0 6.0 0.00 0.00 0.00 70 1014.0
20260905205602 79 80 1.0 6.0 0.00 0.00 0.00 72 1014.0
20260905205503 79 78 1.0 4.0 0.00 0.00 0.00 70 1014.2
20260905205402 78 77 1.0 4.0 0.00 0.00 0.00 72 1014.0
20260905205306 78 74 1.0 4.0 0.00 0.00 0.00 72 1014.0
20260905205202 78 72 1.0 4.0 0.00 0.00 0.00 73 1014.0
20260905205102 78 72 1.0 4.0 0.00 0.00 0.00 73 1014.0
20260905205004 78 74 1.0 4.0 0.00 0.00 0.00 71 1014.0
20260905204924 78 78 1.0 4.0 0.00 0.00 0.00 72 1013.9
20260905204804 79 70 1.0 3.0 0.00 0.00 0.00 70 1014.2
20260905204702 79 79 1.0 3.0 0.00 0.00 0.00 71 1014.1
20260905204603 79 77 1.0 3.0 0.00 0.00 0.00 72 1013.9
20260905204503 78 62 1.0 3.0 0.00 0.00 0.00 72 1014.2
20260905204403 78 53 1.0 3.0 0.00 0.00 0.00 74 1013.9
20260905204303 78 56 1.0 3.0 0.00 0.00 0.00 72 1013.9
20260905204203 78 56 1.0 3.0 0.00 0.00 0.00 72 1014.1
20260905204103 78 54 1.0 3.0 0.00 0.00 0.00 71 1014.0
20260905204003 78 49 1.0 3.0 0.00 0.00 0.00 73 1014.1
20260905203923 78 52 1.0 3.0 0.00 0.00 0.00 73 1014.1
20260905203803 78 57 1.0 3.0 0.00 0.00 0.00 71 1014.2
20260905203725 78 59 1.0 3.0 0.00 0.00 0.00 73 1014.1
20260905203603 78 60 1.0 3.0 0.00 0.00 0.00 72 1014.1
20260905203504 78 69 1.0 3.0 0.00 0.00 0.00 71 1014.2
20260905203402 78 80 1.0 3.0 0.00 0.00 0.00 73 1014.1
20260905203302 78 81 1.0 3.0 0.00 0.00 0.00 72 1014.0
20260905203203 78 77 1.0 4.0 0.00 0.00 0.00 73 1014.1
20260905203124 78 77 1.0 4.0 0.00 0.00 0.00 73 1014.1
20260905203003 78 79 1.0 4.0 0.00 0.00 0.00 72 1014.1
20260905202903 78 80 1.0 4.0 0.00 0.00 0.00 73 1014.0
20260905202804 78 79 1.0 4.0 0.00 0.00 0.00 74 1014.1
20260905202703 78 82 1.0 4.0 0.00 0.00 0.00 74 1014.0
20260905202602 78 83 1.0 4.0 0.00 0.00 0.00 73 1014.3
20260905202503 78 85 1.0 4.0 0.00 0.00 0.00 74 1014.1
20260905202402 78 80 1.0 4.0 0.00 0.00 0.00 73 1014.2
20260905202306 78 79 1.0 6.0 0.00 0.00 0.00 73 1014.1
20260905202203 78 85 1.0 6.0 0.00 0.00 0.00 73 1014.3
20260905202102 78 84 1.0 6.0 0.00 0.00 0.00 74 1014.3
20260905202003 78 77 1.0 6.0 0.00 0.00 0.00 74 1014.2
20260905201903 78 68 1.0 6.0 0.00 0.00 0.00 72 1014.2
20260905201803 78 66 1.0 6.0 0.00 0.00 0.00 74 1014.3
20260905201725 78 61 1.0 6.0 0.00 0.00 0.00 74 1014.2
20260905201602 78 52 1.0 6.0 0.00 0.00 0.00 74 1014.2
20260905201504 78 55 1.0 6.0 0.00 0.00 0.00 73 1014.1
20260905201404 78 62 1.0 6.0 0.00 0.00 0.00 73 1014.2
20260905201304 78 65 1.0 4.0 0.00 0.00 0.00 75 1014.2
20260905201203 77 70 1.0 4.0 0.00 0.00 0.00 75 1014.2
20260905201103 77 65 1.0 4.0 0.00 0.00 0.00 75 1014.3
20260905201003 77 69 1.0 4.0 0.00 0.00 0.00 75 1014.1
20260905200904 77 63 2.0 7.0 0.00 0.00 0.00 76 1014.3
20260905200824 77 63 2.0 7.0 0.00 0.00 0.00 76 1014.1
20260905200703 77 65 2.0 7.0 0.00 0.00 0.00 75 1014.2
20260905200604 77 70 2.0 7.0 0.00 0.00 0.00 76 1014.4
20260905200503 77 65 2.0 7.0 0.00 0.00 0.00 75 1014.2
20260905200425 77 65 2.0 7.0 0.00 0.00 0.00 76 1014.2
20260905200325 77 58 2.0 7.0 0.00 0.00 0.00 75 1014.2
20260905200202 78 62 2.0 7.0 0.00 0.00 0.00 73 1014.4
20260905200125 78 60 2.0 7.0 0.00 0.00 0.00 73 1014.4
20260905200023 78 63 2.0 7.0 0.00 0.00 0.00 74 1014.2
20260905195904 78 74 1.0 6.0 0.00 0.00 0.00 74 1014.1
20260905195803 78 71 1.0 6.0 0.00 0.00 0.00 72 1014.2
20260905195725 78 70 1.0 4.0 0.00 0.00 0.00 73 1014.2
20260905195602 78 62 1.0 4.0 0.00 0.00 0.00 73 1014.1
20260905195524 78 72 1.0 4.0 0.00 0.00 0.00 73 1014.1
20260905195403 78 77 1.0 4.0 0.00 0.00 0.00 73 1014.4
20260905195306 78 69 1.0 4.0 0.00 0.00 0.00 73 1014.2
20260905195203 78 66 1.0 4.0 0.00 0.00 0.00 74 1014.2
20260905195104 78 63 1.0 4.0 0.00 0.00 0.00 74 1014.3
20260905195004 78 63 1.0 4.0 0.00 0.00 0.00 73 1014.1
20260905194903 78 61 1.0 4.0 0.00 0.00 0.00 72 1014.2
20260905194803 78 66 1.0 4.0 0.00 0.00 0.00 75 1014.4
20260905194704 78 69 1.0 4.0 0.00 0.00 0.00 74 1014.1
20260905194603 78 70 1.0 4.0 0.00 0.00 0.00 73 1014.4
20260905194504 79 68 1.0 4.0 0.00 0.00 0.00 74 1014.2
20260905194404 80 71 1.0 4.0 0.00 0.00 0.00 72 1014.3
20260905194302 80 83 1.0 4.0 0.00 0.00 0.00 71 1014.1
20260905194202 80 84 1.0 4.0 0.00 0.00 0.00 70 1014.3
20260905194103 80 94 1.0 3.0 0.00 0.00 0.00 69 1014.0
20260905194003 80 94 1.0 3.0 0.00 0.00 0.00 70 1014.3
20260905193902 80 100 1.0 3.0 0.00 0.00 0.00 70 1014.2
20260905193823 81 102 1.0 3.0 0.00 0.00 0.00 70 1014.2
20260905193702 81 102 1.0 3.0 0.00 0.00 0.00 70 1014.3
20260905193625 81 106 1.0 3.0 0.00 0.00 0.00 69 1014.0
20260905193504 82 112 1.0 3.0 0.00 0.00 0.00 69 1014.3
20260905193424 83 115 0.0 2.0 0.00 0.00 0.00 70 1014.3
20260905193303 83 114 0.0 2.0 0.00 0.00 0.00 68 1014.2
20260905193202 82 113 0.0 2.0 0.00 0.00 0.00 68 1014.1
20260905193103 82 111 0.0 2.0 0.00 0.00 0.00 68 1014.2
20260905193004 81 114 0.0 2.0 0.00 0.00 0.00 70 1014.1
20260905192902 81 112 0.0 2.0 0.00 0.00 0.00 71 1014.3
20260905192803 80 112 0.0 2.0 0.00 0.00 0.00 71 1014.1
20260905192724 80 112 0.0 2.0 0.00 0.00 0.00 73 1014.2
20260905192602 80 112 0.0 2.0 0.00 0.00 0.00 74 1014.2
20260905192503 80 112 0.0 2.0 0.00 0.00 0.00 74 1014.3
20260905192403 80 112 0.0 2.0 0.00 0.00 0.00 73 1014.3
20260905192305 80 110 0.0 2.0 0.00 0.00 0.00 75 1014.2
20260905192204 80 109 0.0 2.0 0.00 0.00 0.00 74 1014.2
20260905192102 80 109 0.0 3.0 0.00 0.00 0.00 75 1014.3
20260905192003 80 106 0.0 3.0 0.00 0.00 0.00 74 1014.2
20260905191904 79 108 0.0 3.0 0.00 0.00 0.00 75 1014.2
20260905191803 80 111 0.0 3.0 0.00 0.00 0.00 74 1014.3
20260905191703 80 112 0.0 3.0 0.00 0.00 0.00 74 1014.4
20260905191602 79 112 0.0 3.0 0.00 0.00 0.00 73 1014.3
20260905191524 79 100 0.0 4.0 0.00 0.00 0.00 74 1014.2
20260905191403 79 101 0.0 4.0 0.00 0.00 0.00 74 1014.2
20260905191303 79 102 0.0 4.0 0.00 0.00 0.00 74 1014.3
20260905191204 79 101 0.0 4.0 0.00 0.00 0.00 74 1014.2
20260905191125 79 99 0.0 4.0 0.00 0.00 0.00 75 1014.3
20260905191003 79 98 0.0 4.0 0.00 0.00 0.00 74 1014.3
20260905190923 79 95 1.0 4.0 0.00 0.00 0.00 74 1014.3
20260905190803 79 90 1.0 4.0 0.00 0.00 0.00 75 1014.4
20260905190704 79 89 1.0 4.0 0.00 0.00 0.00 76 1014.6
20260905190604 79 83 1.0 4.0 0.00 0.00 0.00 75 1014.5
20260905190504 78 92 1.0 3.0 0.00 0.00 0.00 76 1014.3
20260905190402 78 96 1.0 3.0 0.00 0.00 0.00 76 1014.4
20260905190324 78 88 1.0 3.0 0.00 0.00 0.00 77 1014.4
20260905190203 78 71 1.0 4.0 0.00 0.00 0.00 76 1014.6
20260905190104 78 68 1.0 4.0 0.00 0.00 0.00 76 1014.5
20260905190025 78 63 1.0 4.0 0.00 0.00 0.00 76 1014.5
20260905185903 78 58 1.0 4.0 0.00 0.00 0.00 76 1014.4
20260905185802 78 58 1.0 4.0 0.00 0.00 0.00 75 1014.4
20260905185702 78 56 1.0 4.0 0.00 0.00 0.00 75 1014.6
20260905185602 78 59 1.0 4.0 0.00 0.00 0.00 75 1014.4
20260905185503 77 51 1.0 4.0 0.00 0.00 0.00 76 1014.6
20260905185424 77 53 1.0 4.0 0.00 0.00 0.00 77 1014.6
20260905185306 78 62 1.0 4.0 0.00 0.00 0.00 75 1014.5
20260905185203 78 72 1.0 4.0 0.00 0.00 0.00 76 1014.5
20260905185123 78 87 1.0 3.0 0.00 0.00 0.00 76 1014.3
20260905185003 78 100 1.0 3.0 0.00 0.00 0.00 75 1014.3
20260905184902 78 113 0.0 3.0 0.00 0.00 0.00 74 1014.6
20260905184802 78 116 1.0 3.0 0.00 0.00 0.00 75 1014.5
20260905184704 77 114 1.0 3.0 0.00 0.00 0.00 75 1014.4
20260905184603 77 114 1.0 3.0 0.00 0.00 0.00 75 1014.5
20260905184503 78 115 1.0 3.0 0.00 0.00 0.00 76 1014.7
20260905184403 78 115 1.0 3.0 0.00 0.00 0.00 75 1014.7
20260905184304 77 117 1.0 3.0 0.00 0.00 0.00 76 1014.5
20260905184202 77 111 1.0 3.0 0.00 0.00 0.00 76 1014.7
20260905184104 77 106 1.0 3.0 0.00 0.00 0.00 78 1014.5
20260905184003 77 105 1.0 3.0 0.00 0.00 0.00 76 1014.5
20260905183904 78 101 1.0 3.0 0.00 0.00 0.00 76 1014.7
20260905183824 78 97 1.0 3.0 0.00 0.00 0.00 75 1014.6
20260905183703 78 92 0.0 3.0 0.00 0.00 0.00 75 1014.5
20260905183604 78 91 0.0 3.0 0.00 0.00 0.00 76 1014.9
20260905183503 78 91 1.0 3.0 0.00 0.00 0.00 75 1014.5
20260905183403 78 89 1.0 3.0 0.00 0.00 0.00 78 1014.7
20260905183303 78 69 1.0 6.0 0.00 0.00 0.00 77 1014.8
20260905183203 78 67 1.0 6.0 0.00 0.00 0.00 78 1014.8
20260905183102 78 67 1.0 6.0 0.00 0.00 0.00 76 1014.7
20260905183002 78 65 1.0 6.0 0.00 0.00 0.00 78 1014.7
20260905182903 78 58 1.0 6.0 0.00 0.00 0.00 78 1014.7
20260905182803 78 51 1.0 6.0 0.00 0.00 0.00 79 1014.7
20260905182704 78 52 1.0 6.0 0.00 0.00 0.00 77 1014.5
20260905182602 78 55 1.0 6.0 0.00 0.00 0.00 77 1014.8
20260905182504 78 54 1.0 6.0 0.00 0.00 0.00 77 1014.7
20260905182404 79 70 1.0 6.0 0.00 0.00 0.00 75 1014.7
20260905182305 79 86 1.0 6.0 0.00 0.00 0.00 75 1014.7
20260905182203 78 82 1.0 6.0 0.00 0.00 0.00 75 1014.7
20260905182104 78 80 1.0 6.0 0.00 0.00 0.00 75 1014.7
20260905182003 78 80 1.0 6.0 0.00 0.00 0.00 76 1014.8
20260905181904 78 79 1.0 6.0 0.00 0.00 0.00 76 1014.5
20260905181803 78 84 1.0 6.0 0.00 0.00 0.00 77 1014.6
20260905181702 78 84 1.0 6.0 0.00 0.00 0.00 76 1014.7
20260905181625 78 78 1.0 6.0 0.00 0.00 0.00 76 1014.8
20260905181502 78 76 1.0 6.0 0.00 0.00 0.00 77 1014.7
20260905181403 78 64 1.0 3.0 0.00 0.00 0.00 78 1014.8
20260905181304 78 62 1.0 4.0 0.00 0.00 0.00 77 1014.8
20260905181225 78 63 1.0 4.0 0.00 0.00 0.00 77 1014.8
20260905181104 77 74 1.0 4.0 0.00 0.00 0.00 78 1014.7
20260905181002 77 76 1.0 4.0 0.00 0.00 0.00 78 1014.9
20260905180903 77 75 1.0 4.0 0.00 0.00 0.00 77 1014.7
20260905180803 77 79 1.0 4.0 0.00 0.00 0.00 78 1014.8
20260905180704 77 83 1.0 4.0 0.00 0.00 0.00 79 1014.9
20260905180603 77 101 1.0 4.0 0.00 0.00 0.00 78 1014.8
20260905180504 77 101 1.0 4.0 0.00 0.00 0.00 79 1014.8
20260905180403 77 99 1.0 4.0 0.00 0.00 0.00 78 1014.8
20260905180304 77 92 1.0 6.0 0.00 0.00 0.00 79 1014.8
20260905180202 77 91 1.0 6.0 0.00 0.00 0.00 78 1014.7
20260905180125 77 90 1.0 6.0 0.00 0.00 0.00 78 1014.7
20260905180003 77 93 1.0 6.0 0.00 0.00 0.00 77 1014.8
20260905175903 77 80 1.0 9.0 0.00 0.00 0.00 78 1014.8
20260905175803 77 79 1.0 9.0 0.00 0.00 0.00 78 1014.8
20260905175724 77 79 1.0 9.0 0.00 0.00 0.00 78 1014.8
20260905175624 77 76 1.0 9.0 0.00 0.00 0.00 77 1014.8
20260905175502 77 64 1.0 9.0 0.00 0.00 0.00 77 1014.6
20260905175402 77 62 1.0 9.0 0.00 0.00 0.00 77 1014.8
20260905175306 77 69 1.0 9.0 0.00 0.00 0.00 78 1014.8
20260905175204 77 64 1.0 9.0 0.00 0.00 0.00 77 1014.8
20260905175125 77 69 2.0 9.0 0.00 0.00 0.00 77 1014.7
20260905175004 77 67 2.0 9.0 0.00 0.00 0.00 77 1014.8
20260905174925 77 77 1.0 9.0 0.00 0.00 0.00 76 1014.8
20260905174803 77 76 1.0 6.0 0.00 0.00 0.00 78 1014.7
20260905174725 77 72 1.0 6.0 0.00 0.00 0.00 78 1014.9
20260905174603 77 76 1.0 6.0 0.00 0.00 0.00 78 1015.0
20260905174525 77 79 1.0 6.0 0.00 0.00 0.00 80 1014.7
20260905174403 77 92 1.0 6.0 0.00 0.00 0.00 79 1014.7
20260905174304 77 89 1.0 6.0 0.00 0.00 0.00 79 1014.6
20260905174203 77 94 1.0 6.0 0.00 0.00 0.00 78 1014.7
20260905174104 77 92 1.0 6.0 0.00 0.00 0.00 78 1014.8
20260905174003 77 93 1.0 6.0 0.00 0.00 0.00 79 1014.8
20260905173903 77 90 1.0 6.0 0.00 0.00 0.00 79 1014.8
20260905173802 77 79 1.0 6.0 0.00 0.00 0.00 78 1014.8
20260905173702 77 81 1.0 4.0 0.00 0.00 0.00 79 1014.7
20260905173602 77 84 1.0 4.0 0.00 0.00 0.00 79 1014.8
20260905173524 77 78 1.0 6.0 0.00 0.00 0.00 79 1014.7
20260905173403 77 69 1.0 6.0 0.00 0.00 0.00 78 1014.7
20260905173303 77 73 1.0 6.0 0.00 0.00 0.00 79 1014.6
20260905173225 77 74 2.0 6.0 0.00 0.00 0.00 80 1014.7
20260905173102 77 72 2.0 6.0 0.00 0.00 0.00 80 1014.7
20260905173004 76 72 2.0 6.0 0.00 0.00 0.00 80 1014.8
20260905172904 76 70 2.0 8.0 0.00 0.00 0.00 79 1014.7
20260905172825 76 71 2.0 8.0 0.00 0.00 0.00 80 1014.7
20260905172703 76 77 2.0 8.0 0.00 0.00 0.00 80 1014.8
20260905172603 76 74 2.0 8.0 0.00 0.00 0.00 79 1014.7
20260905172524 77 77 2.0 8.0 0.00 0.00 0.00 79 1014.9
20260905172404 77 82 2.0 8.0 0.00 0.00 0.00 79 1014.9
20260905172305 77 91 2.0 8.0 0.00 0.00 0.00 79 1014.8
20260905172224 77 95 2.0 8.0 0.00 0.00 0.00 79 1014.8
20260905172124 78 102 1.0 8.0 0.00 0.00 0.00 80 1014.7
20260905172004 78 102 2.0 8.0 0.00 0.00 0.00 78 1014.7
20260905171903 79 116 1.0 4.0 0.00 0.00 0.00 77 1014.5
20260905171824 79 125 1.0 4.0 0.00 0.00 0.00 76 1014.7
20260905171703 79 126 1.0 4.0 0.00 0.00 0.00 76 1014.7
20260905171623 79 125 1.0 4.0 0.00 0.00 0.00 78 1014.9
20260905171503 79 126 1.0 4.0 0.00 0.00 0.00 75 1014.9
20260905171403 79 122 1.0 4.0 0.00 0.00 0.00 75 1014.7
20260905171304 79 116 1.0 2.0 0.00 0.00 0.00 75 1014.9
20260905171203 78 112 0.0 2.0 0.00 0.00 0.00 77 1014.9
20260905171102 78 110 0.0 2.0 0.00 0.00 0.00 78 1014.9
20260905171004 78 109 0.0 2.0 0.00 0.00 0.00 77 1014.9
20260905170903 78 101 0.0 2.0 0.00 0.00 0.00 77 1015.0
20260905170803 78 102 0.0 2.0 0.00 0.00 0.00 80 1014.9
20260905170703 78 103 0.0 2.0 0.00 0.00 0.00 79 1014.9
20260905170603 78 105 0.0 2.0 0.00 0.00 0.00 79 1014.8
20260905170502 78 104 0.0 2.0 0.00 0.00 0.00 79 1015.1
20260905170403 78 93 0.0 2.0 0.00 0.00 0.00 79 1015.0
20260905170303 77 93 0.0 2.0 0.00 0.00 0.00 79 1014.9
20260905170204 77 96 0.0 2.0 0.00 0.00 0.00 79 1014.9
20260905170104 77 97 0.0 2.0 0.00 0.00 0.00 80 1014.7
20260905170004 77 99 0.0 2.0 0.00 0.00 0.00 80 1015.0
20260905165924 77 100 0.0 2.0 0.00 0.00 0.00 80 1014.9
20260905165802 77 97 0.0 3.0 0.00 0.00 0.00 80 1015.0
20260905165704 77 95 1.0 6.0 0.00 0.00 0.00 80 1015.0
20260905165602 77 102 1.0 6.0 0.00 0.00 0.00 81 1014.9
20260905165503 77 103 1.0 6.0 0.00 0.00 0.00 80 1014.9
20260905165403 77 107 1.0 6.0 0.00 0.00 0.00 81 1015.1
20260905165324 77 108 1.0 6.0 0.00 0.00 0.00 80 1015.0
20260905165204 77 107 1.0 6.0 0.00 0.00 0.00 80 1014.9
20260905165103 77 107 1.0 6.0 0.00 0.01 0.00 80 1014.7
20260905165004 77 106 0.0 6.0 0.00 0.01 0.00 80 1015.0
20260905164904 77 104 0.0 6.0 0.00 0.01 0.00 80 1014.9
20260905164803 77 112 0.0 6.0 0.00 0.01 0.00 81 1015.0
20260905164703 77 127 0.0 4.0 0.00 0.03 0.00 80 1014.9
20260905164603 77 111 0.0 1.0 0.00 0.04 0.00 81 1015.1
20260905164525 77 109 0.0 2.0 0.00 0.06 0.00 81 1015.1
20260905164404 77 106 0.0 2.0 0.00 0.07 0.00 82 1014.9
20260905164324 77 103 0.0 2.0 0.00 0.07 0.00 82 1015.1
20260905164203 76 98 0.0 3.0 0.00 0.07 0.00 82 1014.9
20260905164102 76 102 0.0 3.0 0.00 0.07 0.00 82 1015.0
20260905164024 76 91 1.0 7.0 0.00 0.07 0.00 82 1015.0
20260905163904 76 89 1.0 7.0 0.00 0.07 0.00 82 1015.1
20260905163802 76 92 1.0 7.0 0.00 0.07 0.00 82 1015.2
20260905163704 76 92 1.0 7.0 0.00 0.07 0.00 83 1015.1
20260905163624 76 91 1.0 7.0 0.00 0.07 0.00 84 1015.0
20260905163525 76 90 1.0 7.0 0.00 0.07 0.00 83 1015.1
20260905163404 76 92 1.0 7.0 0.00 0.07 0.00 83 1015.1
20260905163302 76 91 1.0 7.0 0.00 0.07 0.00 83 1015.1
20260905163203 76 92 1.0 7.0 0.00 0.07 0.00 83 1015.2
20260905163104 77 89 1.0 7.0 0.00 0.07 0.00 82 1015.1
20260905163003 77 106 0.0 3.0 0.00 0.07 0.00 82 1015.1
20260905162903 77 103 0.0 3.0 0.00 0.07 0.00 81 1015.0
20260905162803 77 99 0.0 3.0 0.00 0.07 0.00 81 1015.0
20260905162703 77 104 0.0 3.0 0.00 0.07 0.00 81 1015.0
20260905162604 78 112 0.0 3.0 0.00 0.07 0.00 81 1015.1
20260905162523 78 104 0.0 2.0 0.00 0.07 0.00 82 1015.1
20260905162402 77 103 0.0 2.0 0.00 0.07 0.00 81 1015.2
20260905162305 77 101 0.0 2.0 0.00 0.07 0.00 82 1015.0
20260905162203 77 98 0.0 2.0 0.00 0.07 0.00 82 1015.0
20260905162103 77 100 0.0 3.0 0.00 0.07 0.00 81 1015.1
20260905162024 77 98 0.0 3.0 0.00 0.07 0.00 81 1015.1
20260905161903 77 86 0.0 3.0 0.00 0.07 0.00 82 1015.2
20260905161802 76 86 0.0 3.0 0.00 0.07 0.00 83 1015.3
20260905161703 76 80 0.0 3.0 0.00 0.07 0.00 84 1015.3
20260905161603 76 80 0.0 3.0 0.00 0.07 0.00 84 1015.1
20260905161504 76 89 0.0 3.0 0.00 0.07 0.00 85 1015.4
20260905161402 76 80 0.0 3.0 0.00 0.07 0.00 84 1015.3
20260905161303 76 80 1.0 3.0 0.00 0.07 0.00 84 1015.1
20260905161204 76 77 1.0 3.0 0.00 0.07 0.00 84 1015.3
20260905161103 76 71 1.0 3.0 0.00 0.07 0.00 83 1015.2
20260905161004 76 69 0.0 3.0 0.00 0.07 0.00 82 1015.1
20260905160903 76 76 0.0 3.0 0.00 0.07 0.00 83 1015.3
20260905160825 76 76 0.0 3.0 0.00 0.07 0.00 83 1015.3
20260905160702 76 70 0.0 3.0 0.00 0.07 0.00 82 1015.3
20260905160603 76 70 0.0 3.0 0.00 0.07 0.00 82 1015.1
20260905160502 76 58 0.0 3.0 0.00 0.07 0.00 82 1015.2
20260905160403 76 70 0.0 3.0 0.00 0.07 0.00 82 1015.2
20260905160303 77 60 0.0 2.0 0.00 0.07 0.00 82 1015.3
20260905160202 77 44 0.0 3.0 0.00 0.07 0.00 82 1015.2
20260905160003 76 31 0.0 4.0 0.00 0.07 0.00 83 1015.1
20260905155903 76 38 1.0 4.0 0.00 0.07 0.00 82 1015.1
20260905155824 76 38 1.0 4.0 0.00 0.07 0.00 83 1015.4
20260905155703 76 43 1.0 4.0 0.00 0.07 0.00 83 1015.2
20260905155603 76 43 1.0 4.0 0.00 0.07 0.00 83 1015.3
20260905155502 76 43 1.0 4.0 0.00 0.07 0.00 83 1015.1
20260905155404 76 42 1.0 4.0 0.00 0.07 0.00 84 1015.2
20260905155306 76 42 1.0 4.0 0.00 0.07 0.00 84 1015.2
20260905155203 76 45 0.0 4.0 0.00 0.07 0.00 84 1015.2
20260905155103 77 31 0.0 4.0 0.00 0.07 0.00 82 1015.1
20260905155004 77 82 0.0 3.0 0.00 0.07 0.00 82 1015.1
20260905154902 77 100 0.0 1.0 0.00 0.07 0.00 82 1015.2
20260905154802 77 108 0.0 2.0 0.00 0.07 0.00 82 1015.1
20260905154703 77 39 0.0 2.0 0.00 0.07 0.00 83 1015.3
20260905154603 77 84 0.0 2.0 0.00 0.07 0.00 84 1015.3
20260905154502 77 97 0.0 2.0 0.00 0.07 0.00 84 1015.2
20260905154403 76 104 0.0 2.0 0.00 0.07 0.00 84 1015.3
20260905154325 76 105 0.0 2.0 0.00 0.07 0.00 85 1015.2
20260905154224 76 109 0.0 2.0 0.00 0.07 0.00 85 1015.2
20260905154103 76 108 0.0 2.0 0.00 0.07 0.00 85 1015.2
20260905154023 75 105 0.0 3.0 0.00 0.07 0.00 86 1015.3
20260905153903 75 103 1.0 3.0 0.00 0.07 0.00 86 1015.1
20260905153802 75 103 1.0 3.0 0.00 0.07 0.00 87 1015.0
20260905153703 75 105 1.0 3.0 0.00 0.07 0.00 87 1015.2
20260905153604 75 105 1.0 3.0 0.00 0.07 0.00 87 1015.1
20260905153525 75 106 1.0 3.0 0.00 0.07 0.00 87 1015.2
20260905153424 75 105 1.0 3.0 0.00 0.07 0.00 87 1015.2
20260905153304 75 103 0.0 3.0 0.00 0.07 0.00 87 1015.2
20260905153203 75 101 0.0 3.0 0.00 0.07 0.00 87 1015.3
20260905153103 75 101 0.0 3.0 0.00 0.07 0.00 87 1015.2
20260905153002 75 111 0.0 3.0 0.00 0.07 0.00 87 1015.2
20260905152903 75 109 0.0 3.0 0.00 0.07 0.00 86 1015.2
20260905152824 75 109 0.0 3.0 0.00 0.07 0.00 87 1015.1
20260905152704 75 109 0.0 3.0 0.00 0.07 0.00 86 1015.2
20260905152603 75 109 0.0 3.0 0.00 0.07 0.00 86 1015.2
20260905152503 75 109 0.0 3.0 0.00 0.07 0.00 86 1015.2
20260905152403 75 109 0.0 3.0 0.00 0.07 0.00 86 1015.2
20260905152306 75 109 0.0 3.0 0.00 0.07 0.00 86 1015.1
20260905152204 75 108 0.0 3.0 0.00 0.07 0.00 86 1015.3
20260905152103 75 109 0.0 3.0 0.00 0.07 0.00 86 1015.1
20260905152003 75 108 0.0 3.0 0.00 0.07 0.00 86 1015.1
20260905151903 75 112 0.0 1.0 0.00 0.07 0.00 86 1015.2
20260905151802 75 111 0.0 2.0 0.00 0.07 0.00 86 1015.1
20260905151703 75 99 0.0 2.0 0.00 0.07 0.00 86 1015.0
20260905151603 75 99 0.0 2.0 0.00 0.07 0.00 86 1015.1
20260905151525 75 99 0.0 2.0 0.00 0.07 0.00 86 1015.1
20260905151403 75 99 0.0 2.0 0.00 0.07 0.00 87 1015.1
20260905151304 75 99 0.0 2.0 0.00 0.07 0.00 87 1015.0
20260905151224 75 97 0.0 2.0 0.00 0.07 0.00 87 1015.0
20260905151102 75 97 0.0 2.0 0.00 0.07 0.00 88 1015.2
20260905151024 74 97 0.0 2.0 0.00 0.07 0.00 88 1015.2
20260905150903 75 95 0.0 2.0 0.00 0.07 0.00 88 1015.1
20260905150803 75 88 0.0 2.0 0.00 0.07 0.00 87 1015.0
20260905150702 75 98 0.0 2.0 0.00 0.07 0.00 87 1015.1
20260905150602 75 104 0.0 1.0 0.00 0.07 0.00 87 1015.0
20260905150503 74 104 0.0 1.0 0.00 0.07 0.00 87 1015.0
20260905150424 74 104 0.0 1.0 0.00 0.07 0.00 87 1015.0
20260905150303 74 104 0.0 1.0 0.00 0.07 0.00 88 1014.9
20260905150202 74 104 0.0 1.0 0.00 0.07 0.00 88 1014.9
20260905150124 74 106 0.0 1.0 0.00 0.07 0.00 88 1015.1
20260905150004 74 108 0.0 2.0 0.00 0.07 0.00 89 1014.9
20260905145904 74 108 0.0 2.0 0.00 0.07 0.00 89 1015.0
20260905145803 74 108 0.0 2.0 0.00 0.07 0.00 89 1015.0
20260905145724 74 108 0.0 2.0 0.00 0.07 0.00 89 1015.1
20260905145602 74 109 0.0 2.0 0.00 0.07 0.00 90 1015.1
20260905145504 74 109 0.0 2.0 0.00 0.07 0.00 90 1014.9
20260905145403 73 109 0.0 2.0 0.00 0.07 0.00 90 1015.0
20260905145306 73 109 0.0 2.0 0.00 0.08 0.00 90 1014.8
20260905145204 73 109 0.0 2.0 0.00 0.08 0.00 90 1014.9
20260905145103 74 109 0.0 2.0 0.00 0.08 0.00 89 1015.0
20260905145004 74 0 0.0 0.0 0.00 0.08 0.00 89 1014.9
20260905144902 74 0 0.0 0.0 0.00 0.08 0.00 89 1014.9
20260905144804 74 111 0.0 2.0 0.00 0.08 0.00 89 1014.9
20260905144703 74 111 0.0 2.0 0.00 0.08 0.00 89 1014.9
20260905144602 74 111 0.0 2.0 0.00 0.09 0.00 89 1014.8
20260905144504 73 111 0.0 2.0 0.00 0.09 0.00 90 1014.6
20260905144404 73 111 0.0 2.0 0.00 0.09 0.00 90 1014.8
20260905144303 73 111 0.0 2.0 0.00 0.09 0.00 90 1015.0
20260905144204 73 111 0.0 2.0 0.00 0.09 0.00 89 1014.8
20260905144103 73 111 0.0 2.0 0.00 0.09 0.00 90 1014.9
20260905144002 73 110 0.0 2.0 0.00 0.09 0.00 90 1014.7
20260905143903 73 110 0.0 2.0 0.00 0.09 0.00 90 1014.9
20260905143803 73 102 0.0 2.0 0.00 0.10 0.00 90 1014.8
20260905143703 73 104 0.0 2.0 0.00 0.10 0.00 90 1014.8
20260905143603 73 100 0.0 3.0 0.00 0.10 0.00 90 1014.9
20260905143525 73 102 0.0 3.0 0.00 0.10 0.00 90 1015.0
20260905143424 73 102 0.0 3.0 0.00 0.10 0.00 91 1014.9
20260905143302 73 102 0.0 3.0 0.00 0.10 0.00 91 1014.7
20260905143204 73 102 0.0 3.0 0.00 0.10 0.00 91 1014.7
20260905143102 73 102 0.0 3.0 0.00 0.10 0.00 91 1014.7
20260905143004 73 99 0.0 3.0 0.00 0.10 0.00 91 1014.6
20260905142903 73 97 0.0 3.0 0.00 0.11 0.00 91 1014.8
20260905142803 73 102 0.0 3.0 0.00 0.11 0.00 91 1014.7
20260905142703 73 100 0.0 3.0 0.00 0.11 0.00 91 1014.7
20260905142604 73 109 0.0 2.0 0.00 0.11 0.00 91 1014.7
20260905142525 73 0 0.0 0.0 0.00 0.12 0.00 92 1014.7
20260905142403 73 0 0.0 0.0 0.00 0.12 0.00 92 1014.8
20260905142305 73 0 0.0 0.0 0.00 0.12 0.00 92 1014.8
20260905142204 73 0 0.0 0.0 0.00 0.13 0.00 93 1014.3
20260905142104 73 0 0.0 0.0 0.00 0.13 0.00 93 1014.6
20260905142004 72 0 0.0 0.0 0.00 0.14 0.00 94 1014.6
20260905141902 72 0 0.0 0.0 0.00 0.14 0.00 94 1014.5
20260905141803 72 0 0.0 0.0 0.00 0.14 0.00 94 1014.6
20260905141703 72 0 0.0 0.0 0.00 0.14 0.00 95 1014.9
20260905141602 72 0 0.0 0.0 0.00 0.14 0.00 95 1014.7
20260905141504 72 0 0.0 0.0 0.00 0.15 0.00 95 1014.7
20260905141402 71 0 0.0 0.0 0.00 0.15 0.00 95 1014.7
20260905141323 71 0 0.0 0.0 0.00 0.15 0.00 95 1014.7
20260905141225 71 0 0.0 0.0 0.00 0.15 0.00 95 1014.5
20260905141103 71 0 0.0 0.0 0.00 0.15 0.00 95 1014.7
20260905141004 71 0 0.0 0.0 0.00 0.15 0.00 96 1014.7
20260905140904 71 0 0.0 0.0 0.00 0.16 0.00 96 1014.7
20260905140803 71 0 0.0 0.0 0.00 0.16 0.00 97 1014.8
20260905140704 71 0 0.0 0.0 0.00 0.16 0.00 97 1014.6
20260905140603 71 0 0.0 0.0 0.00 0.16 0.00 97 1014.8
20260905140503 71 0 0.0 0.0 0.00 0.16 0.00 97 1014.7
20260905140404 71 0 0.0 0.0 0.00 0.16 0.00 97 1014.7
20260905140303 71 0 0.0 0.0 0.00 0.16 0.00 97 1014.7
20260905140203 71 0 0.0 0.0 0.00 0.16 0.00 97 1014.6
20260905140024 71 0 0.0 0.0 0.00 0.16 0.00 98 1014.7
20260905135904 71 0 0.0 0.0 0.00 0.16 0.00 98 1014.9
20260905135803 71 0 0.0 0.0 0.00 0.16 0.00 98 1014.7
20260905135703 71 0 0.0 0.0 0.00 0.16 0.00 98 1014.6
20260905135603 70 0 0.0 0.0 0.00 0.16 0.00 98 1014.8
20260905135504 70 0 0.0 0.0 0.00 0.16 0.00 98 1014.9
20260905135403 70 0 0.0 0.0 0.00 0.16 0.00 98 1014.8
20260905135306 70 0 0.0 0.0 0.00 0.16 0.00 98 1014.8
20260905135203 70 0 0.0 0.0 0.00 0.16 0.00 98 1014.9
20260905135104 70 0 0.0 0.0 0.00 0.16 0.00 98 1014.7
20260905135003 70 94 0.0 2.0 0.00 0.16 0.00 98 1014.8
20260905134904 70 107 0.0 2.0 0.00 0.17 0.00 98 1014.8
20260905134803 70 107 0.0 2.0 0.00 0.17 0.00 98 1014.8
20260905134704 70 108 0.0 2.0 0.00 0.17 0.00 98 1014.7
20260905134603 70 112 0.0 2.0 0.00 0.17 0.00 98 1014.8
20260905134503 70 112 0.0 2.0 0.00 0.17 0.00 99 1014.6
20260905134403 70 112 0.0 2.0 0.00 0.18 0.00 98 1014.7
20260905134303 70 112 0.0 2.0 0.00 0.18 0.00 99 1014.8
20260905134203 70 111 0.0 2.0 0.00 0.18 0.00 99 1014.7
20260905134125 70 110 0.0 2.0 0.00 0.19 0.00 99 1014.5
20260905134003 70 115 0.0 2.0 0.00 0.21 0.00 99 1014.6
20260905133903 70 113 0.0 2.0 0.00 0.22 0.00 99 1014.8
20260905133803 70 113 0.0 2.0 0.00 0.24 0.00 99 1014.7
20260905133703 70 115 0.0 2.0 0.00 0.25 0.00 99 1014.7
20260905133603 70 114 0.0 2.0 0.00 0.27 0.00 99 1014.5
20260905133503 70 114 0.0 2.0 0.00 0.28 0.00 99 1014.6
20260905133402 70 113 0.0 2.0 0.00 0.30 0.00 99 1014.6
20260905133302 70 113 0.0 2.0 0.00 0.32 0.00 99 1014.7
20260905133203 70 118 0.0 2.0 0.00 0.35 0.00 99 1014.6
20260905133103 70 125 0.0 3.0 0.00 0.39 0.00 99 1014.7
20260905133003 70 131 1.0 4.0 0.00 0.40 0.00 99 1014.6
20260905132924 70 132 1.0 4.0 0.00 0.40 0.00 99 1014.6
20260905132804 70 131 1.0 4.0 0.00 0.41 0.00 99 1014.6
20260905132704 70 132 1.0 4.0 0.00 0.41 0.00 99 1014.5
20260905132623 70 132 1.0 4.0 0.00 0.42 0.00 99 1014.5
20260905132503 69 132 1.0 4.0 0.00 0.43 0.00 99 1014.8
20260905132424 69 132 1.0 4.0 0.00 0.46 0.00 99 1014.8
20260905132305 69 136 1.0 4.0 0.00 0.47 0.00 99 1014.8
20260905132203 69 136 0.0 4.0 0.00 0.47 0.00 99 1014.8
20260905132124 69 138 0.0 4.0 0.00 0.47 0.00 99 1014.8
20260905132002 69 124 0.0 2.0 0.00 0.47 0.00 99 1014.8
20260905131903 69 126 0.0 2.0 0.00 0.47 0.00 99 1014.8
20260905131803 69 132 0.0 1.0 0.00 0.47 0.00 99 1014.8
20260905131704 69 0 0.0 0.0 0.00 0.47 0.00 99 1014.8
20260905131603 69 0 0.0 0.0 0.00 0.47 0.00 99 1014.9
20260905131524 69 0 0.0 0.0 0.00 0.47 0.00 99 1014.8
20260905131425 69 0 0.0 0.0 0.00 0.47 0.00 99 1014.9
20260905131324 69 0 0.0 0.0 0.00 0.47 0.00 99 1015.0
20260905131224 69 115 0.0 1.0 0.00 0.47 0.00 99 1014.9
20260905131103 69 115 0.0 1.0 0.00 0.47 0.00 99 1015.0
20260905131004 69 115 0.0 1.0 0.00 0.47 0.00 99 1014.9
20260905130903 69 115 0.0 1.0 0.00 0.47 0.00 99 1014.9
20260905130803 69 128 0.0 1.0 0.00 0.47 0.00 99 1014.9
20260905130703 69 128 0.0 1.0 0.00 0.47 0.00 99 1015.0
20260905130603 69 128 0.0 1.0 0.00 0.47 0.00 99 1015.1
20260905130524 69 128 0.0 1.0 0.00 0.47 0.00 99 1014.9
20260905130403 69 128 0.0 1.0 0.00 0.47 0.00 99 1014.8
20260905130302 69 128 0.0 1.0 0.00 0.47 0.00 99 1015.0
20260905130203 69 137 0.0 1.0 0.00 0.47 0.00 99 1015.1
20260905130004 69 137 0.0 1.0 0.00 0.47 0.00 99 1014.9
20260905125902 69 137 0.0 1.0 0.00 0.47 0.00 99 1015.2
20260905125804 69 0 0.0 0.0 0.00 0.47 0.00 99 1015.1
20260905125703 69 0 0.0 0.0 0.00 0.47 0.00 99 1015.0
20260905125603 69 0 0.0 0.0 0.00 0.47 0.00 99 1015.1
20260905125525 69 123 0.0 1.0 0.00 0.47 0.00 99 1015.1
20260905125404 69 129 0.0 1.0 0.00 0.47 0.00 99 1015.0
20260905125306 69 131 0.0 2.0 0.00 0.47 0.00 99 1015.1
20260905125204 69 131 0.0 2.0 0.00 0.47 0.00 99 1015.1
20260905125103 69 131 0.0 2.0 0.00 0.47 0.00 99 1015.2
20260905125003 69 131 0.0 2.0 0.00 0.47 0.00 99 1015.2
20260905124903 69 131 0.0 2.0 0.00 0.47 0.00 99 1015.0
20260905124824 69 131 0.0 2.0 0.00 0.47 0.00 99 1015.1
20260905124725 69 131 0.0 2.0 0.00 0.47 0.00 99 1015.2
20260905124603 69 131 0.0 2.0 0.00 0.47 0.00 99 1014.9
20260905124504 69 133 0.0 2.0 0.00 0.47 0.00 99 1015.0
20260905124424 69 134 0.0 2.0 0.00 0.47 0.00 99 1015.1
20260905124303 69 118 0.0 2.0 0.00 0.47 0.00 99 1015.1
20260905124204 69 118 0.0 2.0 0.00 0.47 0.00 99 1015.1
20260905124104 69 118 0.0 2.0 0.00 0.47 0.00 99 1014.9
20260905124003 69 118 0.0 2.0 0.00 0.47 0.00 99 1014.9
20260905123903 69 118 0.0 2.0 0.00 0.47 0.00 99 1015.0
20260905123824 69 120 0.0 2.0 0.00 0.47 0.00 99 1015.0
20260905123704 69 120 0.0 2.0 0.00 0.47 0.00 99 1014.8
20260905123603 69 120 0.0 2.0 0.00 0.47 0.00 99 1014.9
20260905123503 69 120 0.0 2.0 0.00 0.47 0.00 99 1014.9
20260905123403 69 120 0.0 2.0 0.00 0.47 0.00 99 1015.0
20260905123302 69 122 0.0 2.0 0.00 0.47 0.00 99 1014.9
20260905123203 69 131 0.0 1.0 0.00 0.47 0.00 99 1014.8
20260905123103 69 133 0.0 1.0 0.00 0.47 0.00 99 1014.7
20260905123004 69 133 0.0 1.0 0.00 0.47 0.00 99 1014.8
20260905122903 69 133 0.0 1.0 0.00 0.47 0.00 99 1014.8
20260905122803 69 0 0.0 0.0 0.00 0.47 0.00 99 1014.9
20260905122704 69 0 0.0 0.0 0.00 0.47 0.00 99 1014.9
20260905122623 69 0 0.0 0.0 0.00 0.47 0.00 99 1014.8
20260905122504 69 0 0.0 0.0 0.00 0.47 0.00 99 1014.6
20260905122404 69 0 0.0 0.0 0.00 0.47 0.00 99 1014.7
20260905122306 69 121 0.0 1.0 0.00 0.47 0.00 99 1014.8
20260905122204 69 123 0.0 2.0 0.00 0.47 0.00 99 1014.8
20260905122103 69 123 0.0 2.0 0.00 0.47 0.00 99 1014.8
20260905122003 69 123 0.0 2.0 0.00 0.47 0.00 99 1014.7
20260905121903 69 123 0.0 2.0 0.00 0.47 0.00 99 1015.0
20260905121803 69 123 0.0 2.0 0.00 0.47 0.00 99 1014.5
20260905121702 68 123 0.0 2.0 0.00 0.47 0.00 99 1014.8
20260905121603 68 123 0.0 2.0 0.00 0.47 0.00 99 1014.7
20260905121525 68 123 0.0 2.0 0.00 0.47 0.00 99 1014.7
20260905121403 68 123 0.0 2.0 0.00 0.47 0.00 99 1014.7
20260905121302 68 124 0.0 2.0 0.00 0.47 0.00 99 1014.7
20260905121225 68 0 0.0 0.0 0.00 0.47 0.00 99 1014.8
20260905121103 68 0 0.0 0.0 0.00 0.47 0.00 99 1014.8
20260905121002 68 0 0.0 0.0 0.00 0.47 0.00 99 1014.7
20260905120924 68 0 0.0 0.0 0.00 0.47 0.00 99 1014.7
20260905120802 68 0 0.0 0.0 0.00 0.47 0.00 99 1014.8
20260905120704 68 0 0.0 0.0 0.00 0.47 0.00 99 1014.6
20260905120603 68 0 0.0 0.0 0.00 0.47 0.00 99 1014.7
20260905120523 68 0 0.0 0.0 0.00 0.47 0.00 99 1014.9
20260905120402 68 0 0.0 0.0 0.00 0.47 0.00 99 1014.8
20260905120304 68 0 0.0 0.0 0.00 0.47 0.00 99 1014.7
20260905120202 68 0 0.0 0.0 0.00 0.47 0.00 99 1014.8
20260905120003 68 0 0.0 0.0 0.00 0.47 0.00 99 1014.7
20260905115903 68 0 0.0 0.0 0.00 0.47 0.00 99 1014.7
20260905115804 68 0 0.0 0.0 0.00 0.47 0.00 99 1014.9
20260905115704 68 0 0.0 0.0 0.00 0.47 0.00 99 1014.8
20260905115625 68 0 0.0 0.0 0.00 0.47 0.00 99 1014.7
20260905115503 68 0 0.0 0.0 0.00 0.47 0.00 99 1014.7
20260905115404 68 0 0.0 0.0 0.00 0.47 0.00 99 1014.7
20260905115306 68 0 0.0 0.0 0.00 0.47 0.00 99 1014.5
20260905115204 68 0 0.0 0.0 0.00 0.47 0.00 99 1014.8
20260905115103 68 0 0.0 0.0 0.00 0.47 0.00 99 1014.6
20260905115004 68 0 0.0 0.0 0.00 0.47 0.00 99 1014.5
20260905114904 68 0 0.0 0.0 0.00 0.47 0.00 99 1014.5
20260905114803 68 0 0.0 0.0 0.00 0.47 0.00 99 1014.7
20260905114725 68 0 0.0 0.0 0.00 0.47 0.00 99 1014.6
20260905114603 68 0 0.0 0.0 0.00 0.47 0.00 99 1014.5
20260905114503 68 0 0.0 0.0 0.00 0.47 0.00 99 1014.5
20260905114404 68 0 0.0 0.0 0.00 0.47 0.00 99 1014.6
20260905114303 68 0 0.0 0.0 0.00 0.47 0.00 99 1014.4
20260905114203 68 0 0.0 0.0 0.00 0.47 0.00 99 1014.4
20260905114105 68 0 0.0 0.0 0.00 0.47 0.00 99 1014.5
20260905114025 67 0 0.0 0.0 0.00 0.47 0.00 99 1014.3
20260905113904 67 0 0.0 0.0 0.00 0.47 0.00 99 1014.5
20260905113804 67 0 0.0 0.0 0.00 0.47 0.00 99 1014.7
20260905113703 67 0 0.0 0.0 0.00 0.47 0.00 99 1014.5
20260905113602 68 0 0.0 0.0 0.00 0.47 0.00 99 1014.4
20260905113504 68 0 0.0 0.0 0.00 0.47 0.00 99 1014.4
20260905113403 68 0 0.0 0.0 0.00 0.47 0.00 99 1014.5
20260905113303 68 0 0.0 0.0 0.00 0.47 0.00 99 1014.6
20260905113203 68 0 0.0 0.0 0.00 0.47 0.00 99 1014.6
20260905113104 68 0 0.0 0.0 0.00 0.47 0.00 99 1014.4
20260905113003 68 0 0.0 0.0 0.00 0.47 0.00 99 1014.7
20260905112903 68 0 0.0 0.0 0.00 0.47 0.00 99 1014.6
20260905112803 68 0 0.0 0.0 0.00 0.47 0.00 99 1014.6
20260905112703 68 0 0.0 0.0 0.00 0.47 0.00 99 1014.5
20260905112603 68 0 0.0 0.0 0.00 0.47 0.00 99 1014.5
20260905112524 68 0 0.0 0.0 0.00 0.47 0.00 99 1014.5
20260905112403 68 0 0.0 0.0 0.00 0.47 0.00 99 1014.5
20260905112305 68 0 0.0 0.0 0.00 0.47 0.00 99 1014.5
20260905112203 68 0 0.0 0.0 0.00 0.47 0.00 99 1014.4
20260905112103 68 0 0.0 0.0 0.00 0.47 0.00 99 1014.5
20260905112004 68 0 0.0 0.0 0.00 0.47 0.00 99 1014.5
20260905111902 68 0 0.0 0.0 0.00 0.47 0.00 99 1014.5
20260905111803 68 0 0.0 0.0 0.00 0.47 0.00 99 1014.4
20260905111704 68 0 0.0 0.0 0.00 0.47 0.00 99 1014.4
20260905111602 67 0 0.0 0.0 0.00 0.47 0.00 99 1014.3
20260905111504 67 0 0.0 0.0 0.00 0.47 0.00 99 1014.3
20260905111404 67 0 0.0 0.0 0.00 0.47 0.00 99 1014.6
20260905111304 68 0 0.0 0.0 0.00 0.47 0.00 99 1014.3
20260905111203 68 0 0.0 0.0 0.00 0.47 0.00 99 1014.3
20260905111104 68 0 0.0 0.0 0.00 0.47 0.00 99 1014.4
20260905111004 68 0 0.0 0.0 0.00 0.47 0.00 99 1014.4
20260905110924 68 0 0.0 0.0 0.00 0.47 0.00 99 1014.6
20260905110803 68 0 0.0 0.0 0.00 0.47 0.00 99 1014.4
20260905110703 68 0 0.0 0.0 0.00 0.47 0.00 99 1014.6
20260905110603 68 0 0.0 0.0 0.00 0.47 0.00 99 1014.4
20260905110502 68 0 0.0 0.0 0.00 0.47 0.00 99 1014.5
20260905110404 68 0 0.0 0.0 0.00 0.47 0.00 99 1014.6
20260905110304 68 0 0.0 0.0 0.00 0.47 0.00 99 1014.6
20260905110224 68 0 0.0 0.0 0.00 0.47 0.00 99 1014.5
20260905110004 68 0 0.0 0.0 0.00 0.47 0.00 99 1014.6
20260905105924 68 0 0.0 0.0 0.00 0.47 0.00 99 1014.5
20260905105803 68 0 0.0 0.0 0.00 0.47 0.00 99 1014.7
20260905105724 68 0 0.0 0.0 0.00 0.47 0.00 99 1014.8
20260905105624 68 0 0.0 0.0 0.00 0.47 0.00 99 1014.6
20260905105503 68 0 0.0 0.0 0.00 0.47 0.00 99 1014.8
20260905105402 68 0 0.0 0.0 0.00 0.47 0.00 99 1014.8
20260905105306 68 0 0.0 0.0 0.00 0.47 0.00 99 1014.9
20260905105224 68 0 0.0 0.0 0.00 0.47 0.00 99 1014.7
20260905105102 68 0 0.0 0.0 0.00 0.47 0.00 99 1014.7
20260905105025 68 0 0.0 0.0 0.00 0.47 0.00 99 1015.0
20260905104903 68 0 0.0 0.0 0.00 0.47 0.00 99 1014.8
20260905104803 68 0 0.0 0.0 0.00 0.47 0.00 99 1014.8
20260905104703 68 0 0.0 0.0 0.00 0.47 0.00 99 1014.8
20260905104624 68 0 0.0 0.0 0.00 0.47 0.00 99 1015.1
20260905104504 68 0 0.0 0.0 0.00 0.47 0.00 99 1014.8
20260905104403 68 0 0.0 0.0 0.00 0.47 0.00 99 1014.9
20260905104303 68 0 0.0 0.0 0.00 0.47 0.00 99 1015.0
20260905104202 68 0 0.0 0.0 0.00 0.47 0.00 99 1015.1
20260905104103 68 0 0.0 0.0 0.00 0.47 0.00 99 1015.1
20260905104003 68 124 0.0 1.0 0.00 0.47 0.00 99 1015.1
20260905103903 68 137 0.0 2.0 0.00 0.47 0.00 99 1015.2
20260905103803 68 161 0.0 3.0 0.00 0.47 0.00 99 1015.2
20260905103704 68 159 0.0 3.0 0.00 0.47 0.00 99 1015.2
20260905103604 68 159 0.0 3.0 0.00 0.47 0.00 99 1015.0
20260905103503 68 159 0.0 3.0 0.00 0.47 0.00 99 1015.0
20260905103403 68 159 0.0 3.0 0.00 0.47 0.00 99 1015.1
20260905103303 68 159 0.0 3.0 0.00 0.47 0.00 99 1015.1
20260905103204 68 159 0.0 3.0 0.00 0.47 0.00 99 1015.3
20260905103124 68 159 0.0 3.0 0.00 0.47 0.00 99 1015.3
20260905103025 68 164 0.0 3.0 0.00 0.47 0.00 99 1015.2
20260905102904 68 182 0.0 3.0 0.00 0.47 0.00 99 1015.2
20260905102803 68 128 0.0 1.0 0.00 0.47 0.00 99 1015.2
20260905102724 68 0 0.0 0.0 0.00 0.47 0.00 99 1015.2
20260905102603 68 0 0.0 0.0 0.00 0.47 0.00 99 1015.2
20260905102524 68 0 0.0 0.0 0.00 0.47 0.00 99 1015.2
20260905102403 68 0 0.0 0.0 0.00 0.47 0.00 99 1015.1
20260905102306 68 0 0.0 0.0 0.00 0.47 0.00 99 1015.1
20260905102224 68 0 0.0 0.0 0.00 0.47 0.00 99 1015.1
20260905102103 68 0 0.0 0.0 0.00 0.47 0.00 99 1015.2
20260905102004 68 0 0.0 0.0 0.00 0.47 0.00 99 1015.2
20260905101902 68 0 0.0 0.0 0.00 0.47 0.00 99 1015.0
20260905101803 68 151 0.0 1.0 0.00 0.47 0.00 99 1015.0
20260905101703 68 151 0.0 1.0 0.00 0.47 0.00 99 1015.4
20260905101624 68 151 0.0 1.0 0.00 0.47 0.00 99 1015.4
20260905101503 68 151 0.0 1.0 0.00 0.47 0.00 99 1015.3
20260905101404 68 151 0.0 1.0 0.00 0.47 0.00 99 1015.3
20260905101304 68 151 0.0 1.0 0.00 0.47 0.00 99 1015.4
20260905101223 68 151 0.0 1.0 0.00 0.47 0.00 99 1015.4
20260905101103 68 151 0.0 1.0 0.00 0.47 0.00 99 1015.3
20260905101004 68 151 0.0 1.0 0.00 0.47 0.00 99 1015.3
20260905100904 68 151 0.0 1.0 0.00 0.47 0.00 99 1015.4
20260905100803 68 0 0.0 0.0 0.00 0.47 0.00 99 1015.0
20260905100704 68 0 0.0 0.0 0.00 0.47 0.00 99 1015.1
20260905100623 68 0 0.0 0.0 0.00 0.47 0.00 99 1015.2
20260905100503 68 0 0.0 0.0 0.00 0.47 0.00 99 1015.2
20260905100404 68 0 0.0 0.0 0.00 0.47 0.00 99 1015.0
20260905100303 68 0 0.0 0.0 0.00 0.47 0.00 99 1015.0
20260905100203 68 0 0.0 0.0 0.00 0.47 0.00 99 1014.9
20260905100106 68 0 0.0 0.0 0.00 0.47 0.00 99 1014.9
20260905100003 68 0 0.0 0.0 0.00 0.47 0.00 99 1015.0
20260905095903 68 0 0.0 0.0 0.00 0.47 0.00 99 1015.1
20260905095824 68 0 0.0 0.0 0.00 0.47 0.00 99 1015.1
20260905095703 68 0 0.0 0.0 0.00 0.47 0.00 99 1015.1
20260905095604 68 0 0.0 0.0 0.00 0.47 0.00 99 1015.0
20260905095523 68 0 0.0 0.0 0.00 0.47 0.00 99 1015.1
20260905095402 68 0 0.0 0.0 0.00 0.47 0.00 99 1014.8
20260905095325 68 0 0.0 0.0 0.00 0.47 0.00 99 1014.8
20260905095224 68 0 0.0 0.0 0.00 0.47 0.00 99 1014.9
20260905095103 68 0 0.0 0.0 0.00 0.47 0.00 99 1014.9
20260905095003 68 0 0.0 0.0 0.00 0.47 0.00 99 1014.9
20260905094924 68 0 0.0 0.0 0.00 0.47 0.00 99 1014.7
20260905094803 68 0 0.0 0.0 0.00 0.47 0.00 99 1014.8
20260905094704 68 0 0.0 0.0 0.00 0.47 0.00 99 1014.9
20260905094603 68 0 0.0 0.0 0.00 0.47 0.00 99 1014.7
20260905094503 68 0 0.0 0.0 0.00 0.47 0.00 99 1014.5
20260905094403 68 0 0.0 0.0 0.00 0.47 0.00 99 1014.8
20260905094304 68 0 0.0 0.0 0.00 0.47 0.00 99 1014.7
20260905094203 68 0 0.0 0.0 0.00 0.47 0.00 99 1014.6
20260905094103 68 0 0.0 0.0 0.00 0.47 0.00 99 1014.5
20260905094002 68 0 0.0 0.0 0.00 0.47 0.00 99 1014.4
20260905093904 68 0 0.0 0.0 0.00 0.47 0.00 99 1014.3
20260905093803 68 0 0.0 0.0 0.00 0.47 0.00 99 1014.6
20260905093704 68 0 0.0 0.0 0.00 0.47 0.00 99 1014.4
20260905093604 68 0 0.0 0.0 0.00 0.47 0.00 99 1014.4
20260905093524 68 0 0.0 0.0 0.00 0.47 0.00 99 1014.3
20260905093404 68 0 0.0 0.0 0.00 0.47 0.00 99 1014.4
20260905093323 68 0 0.0 0.0 0.00 0.47 0.00 99 1014.3
20260905093203 68 0 0.0 0.0 0.00 0.47 0.00 99 1014.3
20260905093104 68 0 0.0 0.0 0.00 0.47 0.00 99 1014.3
20260905093024 68 0 0.0 0.0 0.00 0.47 0.00 99 1014.4
20260905092904 68 0 0.0 0.0 0.00 0.47 0.00 99 1014.5
20260905092804 68 0 0.0 0.0 0.00 0.47 0.00 99 1014.4
20260905092703 68 0 0.0 0.0 0.00 0.47 0.00 99 1014.3
20260905092624 68 0 0.0 0.0 0.00 0.47 0.00 99 1014.3
20260905092504 68 0 0.0 0.0 0.00 0.47 0.00 99 1014.5
20260905092403 68 0 0.0 0.0 0.00 0.47 0.00 99 1014.4
20260905092306 68 0 0.0 0.0 0.00 0.47 0.00 99 1014.2
20260905092203 68 0 0.0 0.0 0.00 0.47 0.00 99 1014.2
20260905092103 68 0 0.0 0.0 0.00 0.47 0.00 99 1014.1
20260905092004 68 0 0.0 0.0 0.00 0.47 0.00 99 1014.2
20260905091903 68 0 0.0 0.0 0.00 0.47 0.00 99 1014.1
20260905091823 68 0 0.0 0.0 0.00 0.47 0.00 99 1014.1
20260905091703 68 0 0.0 0.0 0.00 0.47 0.00 99 1014.1
20260905091604 68 0 0.0 0.0 0.00 0.47 0.00 99 1014.1
20260905091504 68 0 0.0 0.0 0.00 0.47 0.00 99 1014.1
20260905091403 68 0 0.0 0.0 0.00 0.47 0.00 99 1014.3
20260905091304 68 0 0.0 0.0 0.00 0.47 0.00 99 1014.3
20260905091203 68 0 0.0 0.0 0.00 0.47 0.00 99 1014.1
20260905091103 68 0 0.0 0.0 0.00 0.47 0.00 99 1014.2
20260905091002 68 0 0.0 0.0 0.00 0.47 0.00 99 1014.2
20260905090903 68 0 0.0 0.0 0.00 0.47 0.00 99 1014.4
20260905090825 68 0 0.0 0.0 0.00 0.47 0.00 99 1014.1
20260905090704 68 0 0.0 0.0 0.00 0.47 0.00 99 1014.3
20260905090603 68 0 0.0 0.0 0.00 0.47 0.00 99 1014.2
20260905090503 68 0 0.0 0.0 0.00 0.47 0.00 99 1014.3
20260905090404 68 0 0.0 0.0 0.00 0.47 0.00 99 1014.2
20260905090303 68 0 0.0 0.0 0.00 0.47 0.00 99 1014.1
20260905090203 68 0 0.0 0.0 0.00 0.47 0.00 99 1014.0
20260905090003 68 0 0.0 0.0 0.00 0.47 0.00 99 1014.2
20260905085903 68 0 0.0 0.0 0.00 0.47 0.00 99 1014.3
20260905085803 68 0 0.0 0.0 0.00 0.47 0.00 99 1014.2
20260905085703 68 0 0.0 0.0 0.00 0.47 0.00 99 1014.5
20260905085603 68 0 0.0 0.0 0.00 0.47 0.00 99 1014.2
20260905085503 68 0 0.0 0.0 0.00 0.47 0.00 99 1014.2
20260905085403 68 0 0.0 0.0 0.00 0.47 0.00 99 1014.3
20260905085306 68 0 0.0 0.0 0.00 0.47 0.00 99 1014.3
20260905085203 68 0 0.0 0.0 0.00 0.47 0.00 99 1014.4
20260905085103 67 0 0.0 0.0 0.00 0.47 0.00 99 1014.4
20260905085003 67 0 0.0 0.0 0.00 0.47 0.00 99 1014.4
20260905084903 67 0 0.0 0.0 0.00 0.47 0.00 99 1014.3
20260905084825 67 0 0.0 0.0 0.00 0.47 0.00 99 1014.1
20260905084703 67 0 0.0 0.0 0.00 0.47 0.00 99 1014.2
20260905084603 67 0 0.0 0.0 0.00 0.47 0.00 99 1014.2
20260905084502 67 0 0.0 0.0 0.00 0.47 0.00 99 1014.2
20260905084404 67 0 0.0 0.0 0.00 0.47 0.00 99 1014.4
20260905084324 67 0 0.0 0.0 0.00 0.47 0.00 99 1014.3
20260905084204 67 0 0.0 0.0 0.00 0.47 0.00 99 1014.2
20260905084104 67 0 0.0 0.0 0.00 0.47 0.00 99 1014.2
20260905084004 67 0 0.0 0.0 0.00 0.47 0.00 99 1014.0
20260905083903 67 0 0.0 0.0 0.00 0.47 0.00 99 1014.0
20260905083804 67 0 0.0 0.0 0.00 0.47 0.00 99 1013.9
20260905083703 67 0 0.0 0.0 0.00 0.47 0.00 99 1014.1
20260905083602 67 0 0.0 0.0 0.00 0.47 0.00 99 1014.0
20260905083503 67 0 0.0 0.0 0.00 0.47 0.00 99 1013.9
20260905083404 67 0 0.0 0.0 0.00 0.47 0.00 99 1013.7
20260905083303 67 0 0.0 0.0 0.00 0.47 0.00 99 1013.7
20260905083203 67 0 0.0 0.0 0.00 0.47 0.00 99 1013.5
20260905083104 67 0 0.0 0.0 0.00 0.47 0.00 99 1013.6
20260905083004 67 0 0.0 0.0 0.00 0.47 0.00 99 1013.5
20260905082902 67 0 0.0 0.0 0.00 0.47 0.00 99 1013.6
20260905082803 67 0 0.0 0.0 0.00 0.47 0.00 99 1013.3
20260905082703 67 0 0.0 0.0 0.00 0.47 0.00 99 1013.3
20260905082602 67 0 0.0 0.0 0.00 0.47 0.00 99 1013.3
20260905082503 67 0 0.0 0.0 0.00 0.47 0.00 99 1013.4
20260905082424 67 0 0.0 0.0 0.00 0.47 0.00 99 1013.4
20260905082325 67 0 0.0 0.0 0.00 0.47 0.00 99 1013.6
20260905082203 67 0 0.0 0.0 0.00 0.47 0.00 99 1013.6
20260905082103 67 0 0.0 0.0 0.00 0.47 0.00 99 1013.5
20260905082003 67 0 0.0 0.0 0.00 0.47 0.00 99 1013.5
20260905081904 67 0 0.0 0.0 0.00 0.47 0.00 99 1013.5
20260905081803 67 0 0.0 0.0 0.00 0.47 0.00 99 1013.7
20260905081725 67 0 0.0 0.0 0.00 0.47 0.00 99 1013.4
20260905081604 67 0 0.0 0.0 0.00 0.47 0.00 99 1013.7
20260905081504 67 0 0.0 0.0 0.00 0.47 0.00 99 1013.6
20260905081425 67 0 0.0 0.0 0.00 0.47 0.00 99 1013.5
20260905081304 67 0 0.0 0.0 0.00 0.47 0.00 99 1013.8
20260905081204 67 0 0.0 0.0 0.00 0.47 0.00 99 1013.7
20260905081103 67 0 0.0 0.0 0.00 0.47 0.00 99 1013.8
20260905081004 67 0 0.0 0.0 0.00 0.47 0.00 99 1013.7
20260905080903 67 0 0.0 0.0 0.00 0.47 0.00 99 1013.8
20260905080804 67 0 0.0 0.0 0.00 0.47 0.00 99 1013.7
20260905080703 67 0 0.0 0.0 0.00 0.47 0.00 99 1013.8
20260905080604 67 0 0.0 0.0 0.00 0.47 0.00 99 1013.8
20260905080503 67 0 0.0 0.0 0.00 0.47 0.00 99 1013.7
20260905080404 66 0 0.0 0.0 0.00 0.47 0.00 99 1013.8
20260905080324 66 0 0.0 0.0 0.00 0.47 0.00 99 1013.9
20260905080203 66 0 0.0 0.0 0.00 0.47 0.00 99 1014.0
20260905080004 66 0 0.0 0.0 0.00 0.47 0.00 99 1014.1
20260905075904 66 0 0.0 0.0 0.00 0.47 0.00 99 1014.1
20260905075804 66 0 0.0 0.0 0.00 0.47 0.00 99 1014.0
20260905075703 66 0 0.0 0.0 0.00 0.47 0.00 99 1014.2
20260905075625 66 0 0.0 0.0 0.00 0.47 0.00 99 1014.0
20260905075524 66 0 0.0 0.0 0.00 0.47 0.00 99 1014.1
20260905075404 66 0 0.0 0.0 0.00 0.47 0.00 99 1014.1
20260905075306 66 0 0.0 0.0 0.00 0.47 0.00 99 1013.9
20260905075204 66 0 0.0 0.0 0.00 0.47 0.00 99 1014.2
20260905075103 66 0 0.0 0.0 0.00 0.47 0.00 99 1013.9
20260905075003 66 0 0.0 0.0 0.00 0.47 0.00 99 1013.9
20260905074903 66 0 0.0 0.0 0.00 0.47 0.00 99 1013.9
20260905074804 66 0 0.0 0.0 0.00 0.47 0.00 99 1014.2
20260905074703 66 0 0.0 0.0 0.00 0.47 0.00 99 1014.0
20260905074603 66 0 0.0 0.0 0.00 0.47 0.00 99 1014.1
20260905074503 66 0 0.0 0.0 0.00 0.47 0.00 99 1014.1
20260905074402 66 0 0.0 0.0 0.00 0.47 0.00 99 1013.9
20260905074325 66 0 0.0 0.0 0.00 0.47 0.00 99 1014.0
20260905074224 66 0 0.0 0.0 0.00 0.47 0.00 99 1014.0
20260905074103 66 0 0.0 0.0 0.00 0.47 0.00 99 1014.1
20260905074004 66 0 0.0 0.0 0.00 0.47 0.00 99 1014.0
20260905073903 66 0 0.0 0.0 0.00 0.47 0.00 99 1014.0
20260905073825 66 0 0.0 0.0 0.00 0.47 0.00 99 1013.9
20260905073724 66 0 0.0 0.0 0.00 0.47 0.00 99 1014.1
20260905073604 66 0 0.0 0.0 0.00 0.47 0.00 99 1013.9
20260905073503 66 0 0.0 0.0 0.00 0.47 0.00 99 1013.9
20260905073404 66 0 0.0 0.0 0.00 0.47 0.00 99 1013.7
20260905073303 66 0 0.0 0.0 0.00 0.47 0.00 99 1013.8
20260905073224 66 0 0.0 0.0 0.00 0.47 0.00 99 1013.8
20260905073104 66 0 0.0 0.0 0.00 0.47 0.00 99 1013.9
20260905073004 66 0 0.0 0.0 0.00 0.47 0.00 99 1013.8
20260905072903 66 0 0.0 0.0 0.00 0.47 0.00 99 1013.9
20260905072803 66 0 0.0 0.0 0.00 0.47 0.00 99 1014.1
20260905072704 66 0 0.0 0.0 0.00 0.47 0.00 99 1014.1
20260905072604 66 0 0.0 0.0 0.00 0.47 0.00 99 1014.1
20260905072524 66 0 0.0 0.0 0.00 0.47 0.00 99 1014.0
20260905072403 66 0 0.0 0.0 0.00 0.47 0.00 99 1014.2
20260905072305 66 0 0.0 0.0 0.00 0.47 0.00 99 1014.1
20260905072204 66 0 0.0 0.0 0.00 0.47 0.00 99 1014.1
20260905072103 66 0 0.0 0.0 0.00 0.47 0.00 99 1014.0
20260905072003 66 0 0.0 0.0 0.00 0.47 0.00 99 1014.1
20260905071903 66 0 0.0 0.0 0.00 0.47 0.00 99 1014.0
20260905071804 66 0 0.0 0.0 0.00 0.47 0.00 99 1014.0
20260905071704 66 0 0.0 0.0 0.00 0.47 0.00 99 1014.1
20260905071603 66 0 0.0 0.0 0.00 0.47 0.00 99 1014.0
20260905071502 66 0 0.0 0.0 0.00 0.47 0.00 99 1013.8
20260905071402 66 0 0.0 0.0 0.00 0.47 0.00 99 1013.9
20260905071325 66 0 0.0 0.0 0.00 0.47 0.00 99 1014.0
20260905071204 66 0 0.0 0.0 0.00 0.47 0.00 99 1013.8
20260905071103 66 0 0.0 0.0 0.00 0.47 0.00 99 1013.8
20260905071003 66 0 0.0 0.0 0.00 0.47 0.00 99 1013.7
20260905070903 66 0 0.0 0.0 0.00 0.47 0.00 99 1013.7
20260905070802 66 0 0.0 0.0 0.00 0.47 0.00 99 1013.8
20260905070703 66 0 0.0 0.0 0.00 0.47 0.00 99 1013.7
20260905070603 66 0 0.0 0.0 0.00 0.47 0.00 99 1013.9
20260905070503 66 0 0.0 0.0 0.00 0.47 0.00 99 1013.9
20260905070403 66 0 0.0 0.0 0.00 0.47 0.00 99 1013.9
20260905070303 66 0 0.0 0.0 0.00 0.47 0.00 99 1013.8
20260905070203 66 0 0.0 0.0 0.00 0.47 0.00 99 1013.8
20260905070104 66 0 0.0 0.0 0.00 0.47 0.00 99 1013.8
20260905070004 66 0 0.0 0.0 0.00 0.47 0.00 99 1013.9
20260905065903 66 0 0.0 0.0 0.00 0.47 0.00 99 1013.7
20260905065802 66 0 0.0 0.0 0.00 0.47 0.00 99 1013.9
20260905065703 66 0 0.0 0.0 0.00 0.47 0.00 99 1013.9
20260905065604 66 0 0.0 0.0 0.00 0.47 0.00 99 1013.9
20260905065503 66 0 0.0 0.0 0.00 0.47 0.00 99 1013.9
20260905065402 66 0 0.0 0.0 0.00 0.47 0.00 99 1013.9
20260905065306 66 0 0.0 0.0 0.00 0.47 0.00 99 1013.9
20260905065203 66 0 0.0 0.0 0.00 0.47 0.00 99 1014.0
20260905065104 67 0 0.0 0.0 0.00 0.47 0.00 99 1013.9
20260905065003 67 0 0.0 0.0 0.00 0.47 0.00 99 1013.7
20260905064904 67 0 0.0 0.0 0.00 0.47 0.00 99 1014.1
20260905064825 67 0 0.0 0.0 0.00 0.47 0.00 99 1013.9
20260905064703 67 0 0.0 0.0 0.00 0.47 0.00 99 1014.0
20260905064603 67 0 0.0 0.0 0.00 0.47 0.00 99 1014.0
20260905064503 67 0 0.0 0.0 0.00 0.47 0.00 99 1013.9
20260905064403 67 0 0.0 0.0 0.00 0.47 0.00 99 1014.0
20260905064304 67 0 0.0 0.0 0.00 0.47 0.00 99 1014.1
20260905064224 67 0 0.0 0.0 0.00 0.47 0.00 99 1014.1
20260905064103 67 0 0.0 0.0 0.00 0.47 0.00 99 1014.1
20260905064003 67 0 0.0 0.0 0.00 0.47 0.00 99 1014.2
20260905063904 67 0 0.0 0.0 0.00 0.47 0.00 99 1014.3
20260905063803 67 0 0.0 0.0 0.00 0.47 0.00 99 1014.1
20260905063704 67 0 0.0 0.0 0.00 0.47 0.00 99 1014.4
20260905063603 67 0 0.0 0.0 0.00 0.47 0.00 99 1014.2
20260905063504 67 0 0.0 0.0 0.00 0.47 0.00 99 1014.0
20260905063404 67 0 0.0 0.0 0.00 0.47 0.00 99 1014.1
20260905063303 67 0 0.0 0.0 0.00 0.47 0.00 99 1014.3
20260905063203 67 0 0.0 0.0 0.00 0.47 0.00 99 1014.2
20260905063103 67 0 0.0 0.0 0.00 0.47 0.00 99 1014.4
20260905063004 67 0 0.0 0.0 0.00 0.47 0.00 99 1014.4
20260905062904 67 0 0.0 0.0 0.00 0.47 0.00 99 1014.1
20260905062803 67 0 0.0 0.0 0.00 0.47 0.00 99 1014.3
20260905062703 67 0 0.0 0.0 0.00 0.47 0.00 99 1014.4
20260905062604 67 0 0.0 0.0 0.00 0.47 0.00 99 1014.4
20260905062503 67 0 0.0 0.0 0.00 0.47 0.00 99 1014.4
20260905062404 67 0 0.0 0.0 0.00 0.47 0.00 99 1014.3
20260905062305 67 0 0.0 0.0 0.00 0.47 0.00 99 1014.4
20260905062203 67 0 0.0 0.0 0.00 0.47 0.00 99 1014.3
20260905062103 67 0 0.0 0.0 0.00 0.47 0.00 99 1014.5
20260905062003 67 0 0.0 0.0 0.00 0.47 0.00 99 1014.5
20260905061903 67 0 0.0 0.0 0.00 0.47 0.00 99 1014.3
20260905061804 67 0 0.0 0.0 0.00 0.47 0.00 99 1014.3
20260905061702 67 0 0.0 0.0 0.00 0.47 0.00 99 1014.4
20260905061604 67 0 0.0 0.0 0.00 0.47 0.00 99 1014.5
20260905061503 67 0 0.0 0.0 0.00 0.47 0.00 99 1014.6
20260905061404 67 0 0.0 0.0 0.00 0.47 0.00 99 1014.6
20260905061324 67 0 0.0 0.0 0.00 0.47 0.00 99 1014.6
20260905061203 67 0 0.0 0.0 0.00 0.47 0.00 99 1014.6
20260905061104 67 0 0.0 0.0 0.00 0.47 0.00 99 1014.5
20260905061003 67 0 0.0 0.0 0.00 0.47 0.00 99 1014.7
20260905060903 67 0 0.0 0.0 0.00 0.47 0.00 99 1014.6
20260905060803 67 0 0.0 0.0 0.00 0.47 0.00 99 1014.7
20260905060704 67 0 0.0 0.0 0.00 0.47 0.00 99 1014.7
20260905060624 67 0 0.0 0.0 0.00 0.47 0.00 99 1014.7
20260905060503 67 0 0.0 0.0 0.00 0.47 0.00 99 1014.8
20260905060403 67 0 0.0 0.0 0.00 0.47 0.00 99 1014.8
20260905060303 67 0 0.0 0.0 0.00 0.47 0.00 99 1014.8
20260905060204 67 0 0.0 0.0 0.00 0.47 0.00 99 1014.8
20260905060003 67 0 0.0 0.0 0.00 0.47 0.00 99 1014.8
20260905055903 67 0 0.0 0.0 0.00 0.47 0.00 99 1014.8
20260905055804 67 0 0.0 0.0 0.00 0.47 0.00 99 1014.8
20260905055704 67 0 0.0 0.0 0.00 0.47 0.00 99 1014.8
20260905055604 67 0 0.0 0.0 0.00 0.47 0.00 99 1014.9
20260905055503 67 0 0.0 0.0 0.00 0.47 0.00 99 1014.8
20260905055404 67 0 0.0 0.0 0.00 0.47 0.00 99 1014.8
20260905055306 67 0 0.0 0.0 0.00 0.47 0.00 99 1014.7
20260905055203 67 0 0.0 0.0 0.00 0.47 0.00 99 1014.8
20260905055124 67 0 0.0 0.0 0.00 0.47 0.00 99 1014.9
20260905055003 67 0 0.0 0.0 0.00 0.47 0.00 99 1014.8
20260905054904 67 0 0.0 0.0 0.00 0.47 0.00 99 1014.9
20260905054803 67 0 0.0 0.0 0.00 0.47 0.00 99 1014.8
20260905054704 67 0 0.0 0.0 0.00 0.47 0.00 99 1014.8
20260905054624 67 0 0.0 0.0 0.00 0.47 0.00 99 1014.7
20260905054524 67 0 0.0 0.0 0.00 0.47 0.00 99 1014.8
20260905054404 67 0 0.0 0.0 0.00 0.47 0.00 99 1014.9
20260905054304 67 0 0.0 0.0 0.00 0.47 0.00 99 1014.9
20260905054204 67 0 0.0 0.0 0.00 0.47 0.00 99 1015.0
20260905054103 67 0 0.0 0.0 0.00 0.47 0.00 99 1015.0
20260905054003 67 0 0.0 0.0 0.00 0.47 0.00 99 1014.9
20260905053903 67 0 0.0 0.0 0.00 0.47 0.00 99 1015.0
20260905053804 67 0 0.0 0.0 0.00 0.47 0.00 99 1014.9
20260905053704 67 0 0.0 0.0 0.00 0.47 0.00 99 1015.0
20260905053603 67 0 0.0 0.0 0.00 0.47 0.00 99 1015.0
20260905053503 67 0 0.0 0.0 0.00 0.47 0.00 99 1014.9
20260905053403 67 0 0.0 0.0 0.00 0.47 0.00 99 1015.1
20260905053304 67 0 0.0 0.0 0.00 0.47 0.00 99 1015.1
20260905053225 67 0 0.0 0.0 0.00 0.47 0.00 99 1015.1
20260905053103 67 0 0.0 0.0 0.00 0.47 0.00 99 1015.3
20260905053002 67 0 0.0 0.0 0.00 0.47 0.00 99 1015.2
20260905052903 67 0 0.0 0.0 0.00 0.47 0.00 99 1015.2
20260905052804 67 0 0.0 0.0 0.00 0.47 0.00 99 1015.2
20260905052703 67 0 0.0 0.0 0.00 0.47 0.00 99 1015.2
20260905052603 67 0 0.0 0.0 0.00 0.47 0.00 99 1015.0
20260905052525 67 0 0.0 0.0 0.00 0.47 0.00 99 1015.0
20260905052403 67 0 0.0 0.0 0.00 0.47 0.00 99 1015.0
20260905052306 68 0 0.0 0.0 0.00 0.47 0.00 99 1015.0
20260905052204 68 0 0.0 0.0 0.00 0.47 0.00 99 1015.2
20260905052124 68 0 0.0 0.0 0.00 0.47 0.00 99 1015.3
20260905052003 68 0 0.0 0.0 0.00 0.47 0.00 99 1015.2
20260905051924 68 0 0.0 0.0 0.00 0.47 0.00 99 1015.0
20260905051804 68 0 0.0 0.0 0.00 0.47 0.00 99 1015.0
20260905051725 68 124 0.0 1.0 0.00 0.47 0.00 99 1015.2
20260905051603 68 129 0.0 1.0 0.00 0.47 0.00 99 1015.2
20260905051504 68 129 0.0 1.0 0.00 0.47 0.00 99 1015.1
20260905051403 68 129 0.0 1.0 0.00 0.47 0.00 99 1015.2
20260905051325 68 129 0.0 1.0 0.00 0.47 0.00 99 1015.2
20260905051224 68 129 0.0 1.0 0.00 0.47 0.00 99 1015.1
20260905051103 68 129 0.0 1.0 0.00 0.47 0.00 99 1015.5
20260905051003 68 129 0.0 1.0 0.00 0.47 0.00 99 1015.3
20260905050925 68 129 0.0 1.0 0.00 0.47 0.00 99 1015.3
20260905050824 68 129 0.0 1.0 0.00 0.47 0.00 99 1015.2
20260905050704 68 130 0.0 1.0 0.00 0.47 0.00 99 1015.4
20260905050603 68 127 0.0 1.0 0.00 0.47 0.00 99 1015.2
20260905050503 68 127 0.0 1.0 0.00 0.47 0.00 99 1015.4
20260905050404 68 127 0.0 1.0 0.00 0.47 0.00 99 1015.2
20260905050303 68 127 0.0 1.0 0.00 0.47 0.00 99 1015.2
20260905050224 67 127 0.0 1.0 0.00 0.47 0.00 99 1015.1
20260905050124 67 132 0.0 1.0 0.00 0.47 0.00 99 1015.3
20260905050004 68 0 0.0 0.0 0.00 0.47 0.00 99 1015.1
20260905045903 68 0 0.0 0.0 0.00 0.47 0.00 99 1015.2
20260905045804 67 0 0.0 0.0 0.00 0.47 0.00 99 1015.2
20260905045703 67 0 0.0 0.0 0.00 0.47 0.00 99 1015.0
20260905045603 67 0 0.0 0.0 0.00 0.47 0.00 99 1015.2
20260905045504 68 0 0.0 0.0 0.00 0.47 0.00 99 1015.1
20260905045403 68 0 0.0 0.0 0.00 0.47 0.00 99 1015.1
20260905045305 68 0 0.0 0.0 0.00 0.47 0.00 99 1015.1
20260905045224 68 0 0.0 0.0 0.00 0.47 0.00 99 1015.2
20260905045104 67 0 0.0 0.0 0.00 0.47 0.00 99 1015.1
20260905045024 67 0 0.0 0.0 0.00 0.47 0.00 99 1015.2
20260905044903 67 0 0.0 0.0 0.00 0.47 0.00 99 1015.3
20260905044803 67 0 0.0 0.0 0.00 0.47 0.00 99 1015.3
20260905044703 67 0 0.0 0.0 0.00 0.47 0.00 99 1015.2
20260905044604 67 0 0.0 0.0 0.00 0.47 0.00 99 1015.2
20260905044503 67 0 0.0 0.0 0.00 0.47 0.00 99 1015.0
20260905044403 67 0 0.0 0.0 0.00 0.47 0.00 99 1015.1
20260905044303 67 0 0.0 0.0 0.00 0.47 0.00 99 1015.1
20260905044203 67 0 0.0 0.0 0.00 0.47 0.00 99 1015.2
20260905044103 67 0 0.0 0.0 0.00 0.47 0.00 99 1015.4
20260905044003 67 0 0.0 0.0 0.00 0.47 0.00 99 1015.3
20260905043904 67 0 0.0 0.0 0.00 0.47 0.00 99 1015.3
20260905043804 67 0 0.0 0.0 0.00 0.47 0.00 99 1015.4
20260905043703 67 0 0.0 0.0 0.00 0.47 0.00 99 1015.2
20260905043603 67 0 0.0 0.0 0.00 0.47 0.00 99 1015.2
20260905043503 67 0 0.0 0.0 0.00 0.47 0.00 99 1015.2
20260905043403 67 0 0.0 0.0 0.00 0.47 0.00 99 1015.4
20260905043302 67 0 0.0 0.0 0.00 0.47 0.00 99 1015.4
20260905043224 67 0 0.0 0.0 0.00 0.47 0.00 99 1015.4
20260905043104 67 0 0.0 0.0 0.00 0.47 0.00 99 1015.5
20260905043003 67 0 0.0 0.0 0.00 0.47 0.00 99 1015.5
20260905042903 67 0 0.0 0.0 0.00 0.47 0.00 99 1015.3
20260905042824 67 0 0.0 0.0 0.00 0.47 0.00 99 1015.3
20260905042724 67 0 0.0 0.0 0.00 0.47 0.00 99 1015.3
20260905042603 67 0 0.0 0.0 0.00 0.47 0.00 99 1015.5
20260905042525 67 0 0.0 0.0 0.00 0.47 0.00 99 1015.3
20260905042403 67 0 0.0 0.0 0.00 0.47 0.00 99 1015.3
20260905042306 67 0 0.0 0.0 0.00 0.47 0.00 99 1015.2
20260905042203 67 0 0.0 0.0 0.00 0.47 0.00 99 1015.1
20260905042103 67 0 0.0 0.0 0.00 0.47 0.00 99 1015.1
20260905042003 67 0 0.0 0.0 0.00 0.47 0.00 99 1015.2
20260905041925 67 0 0.0 0.0 0.00 0.47 0.00 99 1015.1
20260905041804 67 0 0.0 0.0 0.00 0.47 0.00 99 1015.1
20260905041703 67 0 0.0 0.0 0.00 0.47 0.00 99 1015.1
20260905041602 67 0 0.0 0.0 0.00 0.47 0.00 99 1015.1
20260905041503 67 0 0.0 0.0 0.00 0.47 0.00 99 1015.3
20260905041403 67 0 0.0 0.0 0.00 0.47 0.00 99 1015.2
20260905041303 67 0 0.0 0.0 0.00 0.47 0.00 99 1015.1
20260905041203 67 0 0.0 0.0 0.00 0.47 0.00 99 1015.4
20260905041124 67 0 0.0 0.0 0.00 0.47 0.00 99 1015.4
20260905041004 67 0 0.0 0.0 0.00 0.47 0.00 99 1015.1
20260905040903 67 0 0.0 0.0 0.00 0.47 0.00 99 1015.2
20260905040803 67 0 0.0 0.0 0.00 0.47 0.00 99 1015.2
20260905040704 67 0 0.0 0.0 0.00 0.47 0.00 99 1015.3
20260905040603 67 0 0.0 0.0 0.00 0.47 0.00 99 1015.2
20260905040525 67 0 0.0 0.0 0.00 0.47 0.00 99 1015.3
20260905040403 67 0 0.0 0.0 0.00 0.47 0.00 99 1015.3
20260905040303 67 0 0.0 0.0 0.00 0.47 0.00 99 1015.2
20260905040203 67 0 0.0 0.0 0.00 0.47 0.00 99 1015.0
20260905040003 67 0 0.0 0.0 0.00 0.47 0.00 99 1015.1
20260905035903 67 0 0.0 0.0 0.00 0.47 0.47 99 1015.0
20260905035802 67 0 0.0 0.0 0.00 0.47 0.47 99 1015.2
20260905035704 67 0 0.0 0.0 0.00 0.47 0.47 99 1015.3
20260905035603 67 0 0.0 0.0 0.00 0.47 0.47 99 1015.3
20260905035503 67 0 0.0 0.0 0.00 0.47 0.47 99 1015.2
20260905035425 67 0 0.0 0.0 0.00 0.47 0.47 99 1015.1
20260905035306 67 0 0.0 0.0 0.00 0.47 0.47 99 1015.4
20260905035203 67 0 0.0 0.0 0.00 0.47 0.47 99 1015.0
20260905035103 67 0 0.0 0.0 0.00 0.47 0.47 99 1015.2
20260905035004 67 0 0.0 0.0 0.00 0.47 0.47 99 1015.0
20260905034924 67 0 0.0 0.0 0.00 0.47 0.47 99 1015.3
20260905034803 67 0 0.0 0.0 0.00 0.47 0.47 99 1015.3
20260905034703 67 0 0.0 0.0 0.00 0.47 0.47 99 1015.2
20260905034604 67 0 0.0 0.0 0.00 0.47 0.47 99 1015.1
20260905034504 67 0 0.0 0.0 0.00 0.47 0.47 99 1015.2
20260905034404 67 0 0.0 0.0 0.00 0.47 0.47 99 1015.1
20260905034303 67 0 0.0 0.0 0.00 0.47 0.47 99 1015.2
20260905034203 67 0 0.0 0.0 0.00 0.47 0.47 99 1015.2
20260905034125 67 0 0.0 0.0 0.00 0.47 0.47 99 1015.2
20260905034024 67 0 0.0 0.0 0.00 0.47 0.47 99 1015.4
20260905033903 67 0 0.0 0.0 0.00 0.47 0.47 99 1015.3
20260905033803 67 0 0.0 0.0 0.00 0.47 0.47 99 1015.2
20260905033704 67 0 0.0 0.0 0.00 0.47 0.47 99 1015.2
20260905033603 67 0 0.0 0.0 0.00 0.47 0.47 99 1015.2
20260905033504 67 0 0.0 0.0 0.00 0.47 0.47 99 1015.5
20260905033403 67 0 0.0 0.0 0.00 0.47 0.47 99 1015.4
20260905033304 67 0 0.0 0.0 0.00 0.47 0.47 99 1015.4
20260905033224 67 0 0.0 0.0 0.00 0.47 0.47 99 1015.4
20260905033104 67 0 0.0 0.0 0.00 0.47 0.47 99 1015.5
20260905033006 67 0 0.0 0.0 0.00 0.47 0.47 99 1015.6
20260905032924 67 0 0.0 0.0 0.00 0.47 0.47 99 1015.4
20260905032803 67 0 0.0 0.0 0.00 0.47 0.47 99 1015.4
20260905032703 68 0 0.0 0.0 0.00 0.47 0.47 99 1015.4
20260905032604 68 0 0.0 0.0 0.00 0.47 0.47 99 1015.3
20260905032503 68 0 0.0 0.0 0.00 0.47 0.47 99 1015.1
20260905032403 68 0 0.0 0.0 0.00 0.47 0.47 99 1015.2
20260905032325 68 0 0.0 0.0 0.00 0.47 0.47 99 1015.3
20260905032204 68 0 0.0 0.0 0.00 0.47 0.47 99 1015.1
20260905032103 68 0 0.0 0.0 0.00 0.47 0.47 99 1015.1
20260905032003 68 0 0.0 0.0 0.00 0.47 0.47 99 1015.1
20260905031904 68 0 0.0 0.0 0.00 0.47 0.47 99 1015.0
20260905031803 68 0 0.0 0.0 0.00 0.47 0.47 99 1015.0
20260905031704 68 0 0.0 0.0 0.00 0.47 0.47 99 1015.0
20260905031603 68 0 0.0 0.0 0.00 0.47 0.47 99 1015.1
20260905031504 68 0 0.0 0.0 0.00 0.47 0.47 99 1015.2
20260905031403 68 0 0.0 0.0 0.00 0.47 0.47 99 1015.0
20260905031324 68 0 0.0 0.0 0.00 0.48 0.47 99 1015.1
20260905031202 68 0 0.0 0.0 0.00 0.49 0.47 99 1015.0
20260905031103 68 0 0.0 0.0 0.00 0.51 0.47 99 1015.1
20260905031002 68 0 0.0 0.0 0.00 0.51 0.47 99 1015.1
20260905030903 68 0 0.0 0.0 0.00 0.51 0.47 99 1015.1
20260905030803 68 0 0.0 0.0 0.00 0.51 0.47 99 1015.1
20260905030704 68 0 0.0 0.0 0.00 0.51 0.47 99 1015.0
20260905030603 68 0 0.0 0.0 0.00 0.51 0.47 99 1015.1
20260905030503 68 0 0.0 0.0 0.00 0.51 0.47 99 1015.1
20260905030404 68 0 0.0 0.0 0.00 0.51 0.47 99 1015.2
20260905030303 68 0 0.0 0.0 0.00 0.51 0.47 98 1015.1
20260905030203 68 0 0.0 0.0 0.00 0.51 0.47 99 1015.1
20260905030003 68 0 0.0 0.0 0.00 0.51 0.47 98 1015.1
20260905025903 68 0 0.0 0.0 0.00 0.51 0.47 98 1015.1
20260905025803 68 0 0.0 0.0 0.00 0.51 0.47 99 1015.0
20260905025704 68 0 0.0 0.0 0.00 0.51 0.47 99 1014.9
20260905025625 68 0 0.0 0.0 0.00 0.51 0.47 98 1015.1
20260905025504 68 0 0.0 0.0 0.00 0.51 0.47 98 1015.0
20260905025425 68 0 0.0 0.0 0.00 0.51 0.47 98 1015.0
20260905025306 68 0 0.0 0.0 0.00 0.51 0.47 98 1015.2
20260905025203 68 0 0.0 0.0 0.00 0.51 0.47 98 1015.0
20260905025124 68 0 0.0 0.0 0.00 0.51 0.47 98 1015.0
20260905025004 68 0 0.0 0.0 0.00 0.51 0.47 98 1015.1
20260905024904 68 0 0.0 0.0 0.00 0.51 0.47 98 1015.2
20260905024824 68 0 0.0 0.0 0.00 0.51 0.47 98 1015.1
20260905024702 68 0 0.0 0.0 0.00 0.51 0.47 98 1015.0
20260905024624 68 0 0.0 0.0 0.00 0.51 0.47 98 1015.0
20260905024503 68 0 0.0 0.0 0.00 0.51 0.47 98 1015.2
20260905024403 68 0 0.0 0.0 0.00 0.51 0.47 98 1015.4
20260905024324 68 0 0.0 0.0 0.00 0.51 0.47 98 1015.4
20260905024203 68 0 0.0 0.0 0.00 0.51 0.47 98 1015.0
20260905024104 68 0 0.0 0.0 0.00 0.51 0.47 98 1015.3
20260905024025 68 0 0.0 0.0 0.00 0.51 0.47 98 1015.3
20260905023903 69 0 0.0 0.0 0.00 0.51 0.47 98 1015.3
20260905023803 69 0 0.0 0.0 0.00 0.51 0.47 98 1015.3
20260905023703 69 0 0.0 0.0 0.00 0.51 0.47 98 1015.3
20260905023603 69 0 0.0 0.0 0.00 0.51 0.47 98 1015.6
20260905023502 69 0 0.0 0.0 0.00 0.51 0.47 98 1015.2
20260905023404 69 0 0.0 0.0 0.00 0.51 0.47 98 1015.2
20260905023303 69 0 0.0 0.0 0.00 0.51 0.47 98 1015.2
20260905023204 69 0 0.0 0.0 0.00 0.51 0.47 98 1015.2
20260905023104 69 0 0.0 0.0 0.00 0.51 0.47 98 1015.1
20260905023003 69 0 0.0 0.0 0.00 0.51 0.47 98 1015.2
20260905022903 69 0 0.0 0.0 0.00 0.51 0.47 98 1015.2
20260905022804 69 0 0.0 0.0 0.00 0.51 0.47 98 1015.3
20260905022704 69 0 0.0 0.0 0.00 0.51 0.47 98 1015.1
20260905022604 69 0 0.0 0.0 0.00 0.51 0.47 98 1015.2
20260905022504 69 0 0.0 0.0 0.00 0.51 0.47 98 1015.3
20260905022403 69 0 0.0 0.0 0.00 0.51 0.47 98 1015.3
20260905022305 69 0 0.0 0.0 0.00 0.51 0.47 98 1015.3
20260905022203 69 0 0.0 0.0 0.00 0.51 0.47 98 1015.3
20260905022103 69 0 0.0 0.0 0.00 0.51 0.47 98 1015.4
20260905022003 69 0 0.0 0.0 0.00 0.51 0.47 98 1015.3
20260905021906 69 0 0.0 0.0 0.00 0.51 0.47 98 1015.3
20260905021803 69 0 0.0 0.0 0.00 0.51 0.47 98 1015.2
20260905021703 69 0 0.0 0.0 0.00 0.51 0.47 98 1015.3
20260905021624 69 0 0.0 0.0 0.00 0.51 0.47 98 1015.4
20260905021524 69 0 0.0 0.0 0.00 0.51 0.47 98 1015.2
20260905021403 69 0 0.0 0.0 0.00 0.51 0.47 98 1015.2
20260905021303 69 0 0.0 0.0 0.00 0.51 0.47 98 1015.3
20260905021203 69 0 0.0 0.0 0.00 0.51 0.47 98 1015.3
20260905021102 69 0 0.0 0.0 0.00 0.51 0.47 98 1015.1
20260905021003 69 0 0.0 0.0 0.00 0.51 0.47 98 1015.2
20260905020903 69 0 0.0 0.0 0.00 0.51 0.47 98 1015.1
20260905020804 69 0 0.0 0.0 0.00 0.51 0.47 98 1015.3
20260905020725 69 0 0.0 0.0 0.00 0.51 0.47 98 1015.2
20260905020603 69 0 0.0 0.0 0.00 0.51 0.47 98 1015.0
20260905020504 69 0 0.0 0.0 0.00 0.51 0.47 98 1015.1
20260905020403 69 0 0.0 0.0 0.00 0.51 0.47 98 1015.2
20260905020303 69 0 0.0 0.0 0.00 0.51 0.47 98 1015.2
20260905020203 69 0 0.0 0.0 0.00 0.51 0.47 98 1015.2
20260905020004 69 0 0.0 0.0 0.00 0.51 0.47 98 1015.3
20260905015904 69 0 0.0 0.0 0.00 0.51 0.47 98 1015.5
20260905015825 69 0 0.0 0.0 0.00 0.51 0.47 98 1015.3
20260905015724 69 0 0.0 0.0 0.00 0.51 0.47 98 1015.3
20260905015604 69 0 0.0 0.0 0.00 0.51 0.47 98 1015.3
20260905015504 69 0 0.0 0.0 0.00 0.51 0.47 98 1015.4
20260905015403 69 0 0.0 0.0 0.00 0.51 0.47 98 1015.3
20260905015306 69 0 0.0 0.0 0.00 0.51 0.47 98 1015.3
20260905015202 69 0 0.0 0.0 0.00 0.51 0.47 98 1015.2
20260905015104 69 0 0.0 0.0 0.00 0.51 0.47 98 1015.3
20260905015004 70 0 0.0 0.0 0.00 0.51 0.47 98 1015.4
20260905014924 70 0 0.0 0.0 0.00 0.51 0.47 98 1015.4
20260905014803 70 0 0.0 0.0 0.00 0.51 0.47 98 1015.3
20260905014703 70 0 0.0 0.0 0.00 0.51 0.47 98 1015.2
20260905014624 70 0 0.0 0.0 0.00 0.51 0.47 98 1015.2
20260905014524 70 0 0.0 0.0 0.00 0.51 0.47 98 1015.2
20260905014403 70 0 0.0 0.0 0.00 0.51 0.47 98 1015.4
20260905014303 70 0 0.0 0.0 0.00 0.51 0.47 98 1015.4
20260905014203 70 0 0.0 0.0 0.00 0.51 0.47 98 1015.3
20260905014103 70 0 0.0 0.0 0.00 0.51 0.47 98 1015.4
20260905014004 70 0 0.0 0.0 0.00 0.51 0.47 98 1015.4
20260905013925 70 0 0.0 0.0 0.00 0.51 0.47 98 1015.3
20260905013803 70 0 0.0 0.0 0.00 0.51 0.47 98 1015.3
20260905013703 70 0 0.0 0.0 0.00 0.51 0.47 98 1015.2
20260905013603 69 0 0.0 0.0 0.00 0.51 0.47 98 1015.2
20260905013503 69 0 0.0 0.0 0.00 0.51 0.47 98 1015.3
20260905013424 69 0 0.0 0.0 0.00 0.51 0.47 98 1015.4
20260905013304 69 0 0.0 0.0 0.00 0.51 0.47 97 1015.4
20260905013204 69 0 0.0 0.0 0.00 0.51 0.47 97 1015.3
20260905013103 69 0 0.0 0.0 0.00 0.51 0.47 97 1015.6
20260905013025 69 0 0.0 0.0 0.00 0.51 0.47 97 1015.4
20260905012924 69 0 0.0 0.0 0.00 0.51 0.47 97 1015.3
20260905012803 70 0 0.0 0.0 0.00 0.51 0.47 97 1015.5
20260905012703 70 0 0.0 0.0 0.00 0.51 0.47 97 1015.4
20260905012603 70 0 0.0 0.0 0.00 0.51 0.47 97 1015.4
20260905012503 70 0 0.0 0.0 0.00 0.51 0.47 97 1015.4
20260905012403 70 0 0.0 0.0 0.00 0.51 0.47 97 1015.5
20260905012306 70 0 0.0 0.0 0.00 0.51 0.47 97 1015.3
20260905012204 70 0 0.0 0.0 0.00 0.51 0.47 97 1015.4
20260905012103 70 0 0.0 0.0 0.00 0.51 0.47 97 1015.4
20260905012002 70 0 0.0 0.0 0.00 0.51 0.47 97 1015.3
20260905011924 70 0 0.0 0.0 0.00 0.51 0.47 97 1015.4
20260905011824 70 0 0.0 0.0 0.00 0.51 0.47 97 1015.3
20260905011703 70 0 0.0 0.0 0.00 0.51 0.47 97 1015.3
20260905011604 70 0 0.0 0.0 0.00 0.51 0.47 97 1015.5
20260905011503 70 0 0.0 0.0 0.00 0.51 0.47 97 1015.4
20260905011404 70 0 0.0 0.0 0.00 0.51 0.47 97 1015.3
20260905011324 70 0 0.0 0.0 0.00 0.51 0.47 97 1015.5
20260905011224 70 0 0.0 0.0 0.00 0.51 0.47 97 1015.4
20260905011124 70 0 0.0 0.0 0.00 0.51 0.47 97 1015.5
20260905011024 70 0 0.0 0.0 0.00 0.51 0.47 97 1015.4
20260905010904 70 0 0.0 0.0 0.00 0.51 0.47 97 1015.3
20260905010803 70 0 0.0 0.0 0.00 0.51 0.47 97 1015.3
20260905010703 70 0 0.0 0.0 0.00 0.51 0.47 97 1015.4
20260905010604 70 0 0.0 0.0 0.00 0.51 0.47 97 1015.3
20260905010503 70 0 0.0 0.0 0.00 0.51 0.47 97 1015.3
20260905010424 70 0 0.0 0.0 0.00 0.51 0.47 97 1015.2
20260905010325 70 0 0.0 0.0 0.00 0.51 0.47 97 1015.4
20260905010203 70 0 0.0 0.0 0.00 0.51 0.47 97 1015.3
20260905010104 70 0 0.0 0.0 0.00 0.51 0.47 97 1015.2
20260905010004 70 0 0.0 0.0 0.00 0.51 0.47 97 1015.2
20260905005903 70 0 0.0 0.0 0.00 0.51 0.47 97 1015.2
20260905005824 70 0 0.0 0.0 0.00 0.51 0.47 97 1015.2
20260905005702 70 0 0.0 0.0 0.00 0.51 0.47 96 1015.1
20260905005603 70 0 0.0 0.0 0.00 0.51 0.47 96 1015.2
20260905005503 70 0 0.0 0.0 0.00 0.51 0.47 96 1015.3
20260905005403 70 0 0.0 0.0 0.00 0.51 0.47 96 1015.2
20260905005306 70 0 0.0 0.0 0.00 0.51 0.47 96 1015.3
20260905005203 70 0 0.0 0.0 0.00 0.51 0.47 96 1015.2
20260905005103 70 0 0.0 0.0 0.00 0.51 0.47 96 1015.1
20260905005004 70 0 0.0 0.0 0.00 0.51 0.47 96 1015.2
20260905004909 70 0 0.0 0.0 0.00 0.51 0.47 96 1015.2
20260905004803 70 0 0.0 0.0 0.00 0.51 0.47 96 1014.8
20260905004703 70 0 0.0 0.0 0.00 0.51 0.47 96 1015.2
20260905004603 70 0 0.0 0.0 0.00 0.51 0.47 96 1015.1
20260905004525 70 0 0.0 0.0 0.00 0.51 0.47 96 1015.1
20260905004403 70 0 0.0 0.0 0.00 0.51 0.47 96 1015.3
20260905004304 70 0 0.0 0.0 0.00 0.51 0.47 96 1015.2
20260905004237 70 0 0.0 0.0 0.00 0.51 0.47 96 1015.2
20260905004104 70 0 0.0 0.0 0.00 0.51 0.47 96 1015.2
20260905004004 71 0 0.0 0.0 0.00 0.51 0.47 96 1015.2
20260905003903 71 0 0.0 0.0 0.00 0.51 0.47 96 1015.1
20260905003803 71 0 0.0 0.0 0.00 0.51 0.47 96 1015.1
20260905003704 71 0 0.0 0.0 0.00 0.51 0.47 96 1015.1
20260905003604 71 0 0.0 0.0 0.00 0.51 0.47 96 1015.2
20260905003504 71 0 0.0 0.0 0.00 0.51 0.47 96 1015.1
20260905003404 71 0 0.0 0.0 0.00 0.51 0.47 96 1015.1
20260905003304 71 0 0.0 0.0 0.00 0.51 0.47 96 1015.3
20260905003225 71 0 0.0 0.0 0.00 0.51 0.47 96 1015.1
20260905003124 71 0 0.0 0.0 0.00 0.51 0.47 95 1015.2
20260905003024 71 0 0.0 0.0 0.00 0.51 0.47 95 1015.3
20260905002904 71 0 0.0 0.0 0.00 0.51 0.47 95 1015.2
20260905002803 71 0 0.0 0.0 0.00 0.51 0.47 95 1015.2
20260905002703 71 0 0.0 0.0 0.00 0.51 0.47 95 1015.1
20260905002625 71 0 0.0 0.0 0.00 0.51 0.47 95 1015.2
20260905002503 71 0 0.0 0.0 0.00 0.51 0.47 95 1015.2
20260905002403 71 0 0.0 0.0 0.00 0.51 0.47 95 1015.1
20260905002306 71 0 0.0 0.0 0.00 0.51 0.47 95 1015.1
20260905002204 71 0 0.0 0.0 0.00 0.51 0.47 95 1015.3
20260905002103 71 0 0.0 0.0 0.00 0.51 0.47 95 1015.2
20260905002003 71 0 0.0 0.0 0.00 0.51 0.47 95 1015.2
20260905001904 71 0 0.0 0.0 0.00 0.51 0.47 95 1015.1
20260905001804 71 0 0.0 0.0 0.00 0.51 0.47 95 1015.2
20260905001703 71 0 0.0 0.0 0.00 0.51 0.47 94 1014.9
20260905001603 72 0 0.0 0.0 0.00 0.51 0.47 94 1015.0
20260905001502 72 0 0.0 0.0 0.00 0.51 0.47 94 1015.0
20260905001424 72 0 0.0 0.0 0.00 0.51 0.47 94 1015.2
20260905001304 72 0 0.0 0.0 0.00 0.51 0.47 94 1015.0
20260905001225 72 0 0.0 0.0 0.00 0.51 0.47 94 1015.3
20260905001104 72 0 0.0 0.0 0.00 0.51 0.47 94 1015.2
20260905001004 72 0 0.0 0.0 0.00 0.51 0.47 94 1015.3
20260905000903 72 0 0.0 0.0 0.00 0.52 0.47 94 1015.0
20260905000804 72 0 0.0 0.0 0.00 0.52 0.47 93 1015.2
20260905000703 72 0 0.0 0.0 0.00 0.52 0.47 93 1015.2
20260905000603 72 0 0.0 0.0 0.00 0.52 0.47 93 1015.1
20260905000524 72 0 0.0 0.0 0.00 0.52 0.47 93 1015.0
20260905000403 72 0 0.0 0.0 0.00 0.52 0.47 93 1015.1
20260905000303 72 0 0.0 0.0 0.00 0.52 0.47 93 1015.4
20260905000226 72 0 0.0 0.0 0.00 0.52 0.47 93 1015.1
20260905000004 73 0 0.0 0.0 0.00 0.52 0.47 93 1015.1
20260904235925 73 0 0.0 0.0 0.00 0.52 0.47 93 1015.0
20260904235803 73 0 0.0 0.0 0.00 0.52 0.47 92 1015.0
20260904235724 73 0 0.0 0.0 0.00 0.52 0.47 92 1015.1
20260904235603 73 0 0.0 0.0 0.00 0.53 0.47 92 1015.0
20260904235502 73 0 0.0 0.0 0.00 0.53 0.47 92 1015.0
20260904235403 74 0 0.0 0.0 0.00 0.53 0.47 92 1015.0
20260904235306 74 0 0.0 0.0 0.00 0.53 0.47 91 1015.1
20260904235224 74 0 0.0 0.0 0.00 0.53 0.47 91 1015.1
20260904235103 74 0 0.0 0.0 0.00 0.53 0.47 90 1015.2
20260904235003 74 0 0.0 0.0 0.00 0.53 0.47 91 1015.2
20260904234903 74 0 0.0 0.0 0.00 0.53 0.47 91 1015.6
20260904234804 74 0 0.0 0.0 0.00 0.53 0.47 90 1015.2
20260904234702 74 0 0.0 0.0 0.00 0.53 0.47 90 1015.3
20260904234603 74 0 0.0 0.0 0.00 0.53 0.47 90 1015.3
20260904234503 74 0 0.0 0.0 0.00 0.53 0.47 90 1015.1
20260904234403 74 0 0.0 0.0 0.00 0.53 0.47 90 1015.2
20260904234325 74 0 0.0 0.0 0.00 0.53 0.47 90 1015.2
20260904234203 74 0 0.0 0.0 0.00 0.53 0.47 91 1015.4
20260904234103 74 0 0.0 0.0 0.00 0.54 0.47 90 1015.2
20260904234003 74 136 0.0 1.0 0.00 0.54 0.47 90 1015.3
20260904233903 74 159 0.0 1.0 0.00 0.54 0.47 90 1015.2
20260904233804 74 155 0.0 1.0 0.00 0.54 0.47 91 1015.1
20260904233704 74 155 0.0 1.0 0.00 0.54 0.47 91 1015.1
20260904233603 74 141 0.0 1.0 0.00 0.54 0.47 91 1015.3
20260904233504 74 141 0.0 1.0 0.00 0.55 0.47 91 1015.3
20260904233403 74 137 0.0 1.0 0.00 0.55 0.47 91 1015.3
20260904233304 74 137 0.0 1.0 0.00 0.55 0.47 91 1015.3
20260904233203 74 137 0.0 1.0 0.00 0.55 0.47 91 1015.6
20260904233103 74 137 0.0 1.0 0.00 0.55 0.47 91 1015.7
20260904233004 74 137 0.0 1.0 0.00 0.56 0.47 91 1015.7
20260904232904 74 124 0.0 1.0 0.00 0.56 0.47 92 1015.6
20260904232804 74 98 0.0 1.0 0.00 0.56 0.47 92 1015.5
20260904232704 74 90 0.0 1.0 0.00 0.56 0.47 92 1015.7
20260904232604 74 114 0.0 1.0 0.00 0.56 0.47 92 1015.6
20260904232503 74 109 0.0 1.0 0.00 0.56 0.47 92 1015.7
20260904232403 74 110 0.0 1.0 0.00 0.56 0.47 92 1015.3
20260904232306 74 110 0.0 1.0 0.00 0.57 0.47 91 1015.4
20260904232203 74 127 0.0 2.0 0.00 0.57 0.47 91 1015.6
20260904232103 75 132 0.0 2.0 0.00 0.57 0.47 91 1015.4
20260904232024 75 134 0.0 2.0 0.00 0.57 0.47 91 1015.4
20260904231903 75 136 0.0 2.0 0.00 0.57 0.47 90 1015.0
20260904231803 75 136 0.0 2.0 0.00 0.57 0.47 90 1015.0
20260904231703 75 133 0.0 2.0 0.00 0.58 0.47 90 1015.0
20260904231604 75 141 1.0 2.0 0.00 0.58 0.47 90 1015.1
20260904231503 75 145 1.0 2.0 0.00 0.58 0.47 89 1015.0
20260904231424 75 147 1.0 2.0 0.00 0.58 0.47 89 1015.3
20260904231304 75 153 1.0 2.0 0.00 0.59 0.47 88 1015.4
20260904231224 75 152 1.0 2.0 0.00 0.59 0.47 88 1015.5
20260904231103 75 152 0.0 2.0 0.00 0.59 0.47 88 1015.5
20260904231025 75 154 0.0 2.0 0.00 0.59 0.47 88 1015.5
20260904230904 75 153 0.0 2.0 0.00 0.59 0.47 88 1015.5
20260904230804 75 150 0.0 2.0 0.00 0.59 0.47 88 1015.4
20260904230704 75 160 0.0 2.0 0.00 0.60 0.47 88 1015.5
20260904230604 75 152 0.0 2.0 0.00 0.60 0.47 88 1015.4
20260904230504 75 159 0.0 2.0 0.00 0.60 0.47 88 1015.6
20260904230424 75 165 0.0 2.0 0.00 0.60 0.47 88 1015.4
20260904230303 75 134 0.0 2.0 0.00 0.61 0.47 88 1015.5
20260904230204 75 138 0.0 2.0 0.00 0.61 0.47 89 1015.5
20260904230025 75 127 0.0 2.0 0.00 0.62 0.47 89 1015.4
20260904225924 75 133 1.0 2.0 0.00 0.62 0.47 89 1015.4
20260904225802 75 136 0.0 2.0 0.00 0.62 0.47 89 1015.5
20260904225703 75 132 0.0 2.0 0.00 0.63 0.47 89 1015.4
20260904225602 76 121 0.0 2.0 0.00 0.63 0.47 90 1015.3
20260904225504 76 119 0.0 2.0 0.00 0.64 0.47 90 1015.5
20260904225425 76 119 0.0 2.0 0.00 0.64 0.47 90 1015.4
20260904225305 76 125 0.0 2.0 0.00 0.65 0.47 88 1015.3
20260904225204 76 123 0.0 2.0 0.00 0.65 0.47 88 1015.6
20260904225103 76 135 0.0 2.0 0.00 0.66 0.47 89 1015.4
20260904225003 76 138 0.0 2.0 0.00 0.66 0.47 89 1015.4
20260904224904 76 120 0.0 1.0 0.00 0.66 0.47 90 1015.2
20260904224803 76 120 0.0 1.0 0.00 0.66 0.47 90 1015.4
20260904224703 76 126 0.0 1.0 0.00 0.67 0.47 90 1015.3
20260904224604 76 131 0.0 1.0 0.00 0.67 0.47 90 1015.4
20260904224503 76 131 0.0 1.0 0.00 0.68 0.47 90 1015.1
20260904224403 76 131 0.0 1.0 0.00 0.69 0.47 90 1015.3
20260904224303 76 131 0.0 1.0 0.00 0.70 0.47 90 1015.5
20260904224225 76 130 0.0 1.0 0.00 0.71 0.47 90 1015.2
20260904224125 76 112 0.0 1.0 0.00 0.73 0.47 90 1015.2
20260904224004 76 112 0.0 1.0 0.00 0.74 0.47 90 1015.3
20260904223902 76 104 0.0 1.0 0.00 0.77 0.47 90 1015.2
20260904223803 76 104 0.0 1.0 0.00 0.80 0.47 90 1015.4
20260904223703 76 104 0.0 1.0 0.00 0.84 0.47 89 1015.2
20260904223604 76 104 0.0 1.0 0.00 0.87 0.47 89 1015.1
20260904223503 76 104 0.0 1.0 0.00 0.91 0.47 89 1015.0
20260904223403 76 104 0.0 1.0 0.00 0.95 0.47 89 1015.1
20260904223304 76 104 0.0 1.0 0.00 0.96 0.47 89 1015.2
20260904223224 76 104 0.0 1.0 0.00 0.98 0.47 89 1015.2
20260904223103 76 0 0.0 0.0 0.00 1.00 0.47 89 1014.9
20260904223003 76 93 0.0 1.0 0.00 1.03 0.47 90 1015.0
20260904222904 76 93 0.0 1.0 0.00 1.05 0.47 89 1015.0
20260904222803 76 93 0.0 1.0 0.00 1.07 0.47 89 1014.9
20260904222703 76 93 0.0 1.0 0.00 1.11 0.47 89 1014.8
20260904222603 76 93 0.0 1.0 0.00 1.15 0.47 89 1014.9
20260904222503 76 93 0.0 1.0 0.00 1.23 0.47 89 1015.0
20260904222403 76 93 0.0 1.0 0.00 1.27 0.47 89 1015.0
20260904222306 76 93 0.0 1.0 0.00 1.30 0.47 88 1015.2
20260904222203 76 93 0.0 1.0 0.00 1.31 0.47 88 1014.9
20260904222124 76 93 0.0 1.0 0.00 1.32 0.47 88 1014.9
20260904222003 76 108 0.0 1.0 0.00 1.33 0.47 88 1015.0
20260904221903 77 124 0.0 1.0 0.00 1.33 0.47 88 1015.0
20260904221803 77 97 0.0 2.0 0.00 1.33 0.47 88 1015.1
20260904221703 77 95 0.0 2.0 0.00 1.34 0.47 88 1015.0
20260904221624 77 95 0.0 2.0 0.00 1.36 0.47 88 1015.1
20260904221503 76 95 0.0 2.0 0.00 1.38 0.47 88 1014.9
20260904221403 76 95 0.0 2.0 0.00 1.39 0.47 88 1014.9
20260904221303 76 95 0.0 2.0 0.00 1.40 0.47 88 1015.0
20260904221225 76 95 0.0 2.0 0.00 1.40 0.47 88 1015.0
20260904221104 76 95 0.0 2.0 0.00 1.40 0.47 87 1014.8
20260904221003 76 93 0.0 2.0 0.00 1.41 0.47 88 1014.9
20260904220903 76 91 0.0 2.0 0.00 1.41 0.47 88 1014.9
20260904220804 77 110 0.0 1.0 0.00 1.41 0.47 88 1014.7
20260904220724 77 123 0.0 1.0 0.00 1.41 0.47 88 1014.9
20260904220603 77 123 0.0 1.0 0.00 1.42 0.47 87 1014.8
20260904220503 77 123 0.0 1.0 0.00 1.42 0.47 87 1014.7
20260904220404 77 123 0.0 1.0 0.00 1.42 0.47 87 1014.6
20260904220304 77 123 0.0 1.0 0.00 1.42 0.47 87 1014.7